Time,TemperatureF,DewpointF,PressureIn,WindDirection,WindDirectionDegrees,WindSpeedMPH,WindSpeedGustMPH,Humidity,HourlyPrecipIn,Conditions,Clouds,dailyrainin,SoftwareType,DateUTC
2013-07-23 00:00:00,75.1,73.9,29.74,South,178,12.0,15.0,96,0.00,,---,0.00,VWS V12.08,2013-07-23 04:00:00,
2013-07-23 00:01:00,75.1,73.9,29.74,South,179,15.0,15.0,96,0.00,,---,0.00,VWS V12.08,2013-07-23 04:01:00,
2013-07-23 00:06:00,75.1,73.9,29.74,South,169,14.0,15.0,96,0.00,,---,0.00,VWS V12.08,2013-07-23 04:06:00,
2013-07-23 00:11:00,75.0,73.8,29.74,South,176,14.0,15.0,96,0.00,,---,0.00,VWS V12.08,2013-07-23 04:11:00,
2013-07-23 00:16:00,75.0,73.8,29.73,South,175,13.0,15.0,96,0.00,,---,0.00,VWS V12.08,2013-07-23 04:16:00,
2013-07-23 00:21:00,75.1,73.9,29.73,South,180,11.0,11.0,96,0.00,,---,0.00,VWS V12.08,2013-07-23 04:21:00,
2013-07-23 00:26:00,75.0,73.8,29.73,South,178,10.0,13.0,96,0.00,,---,0.00,VWS V12.08,2013-07-23 04:26:00,
2013-07-23 00:27:00,75.0,73.8,29.73,South,178,11.0,13.0,96,0.00,,---,0.00,VWS V12.08,2013-07-23 04:27:00,
2013-07-23 00:31:00,75.0,73.8,29.73,South,175,10.0,10.0,96,0.00,,---,0.00,VWS V12.08,2013-07-23 04:31:00,
2013-07-23 00:32:00,75.0,73.8,29.73,South,175,10.0,11.0,96,0.00,,---,0.00,VWS V12.08,2013-07-23 04:32:00,
2013-07-23 00:36:00,74.9,73.7,29.73,South,182,11.0,13.0,96,0.00,,---,0.00,VWS V12.08,2013-07-23 04:36:00,
2013-07-23 00:37:00,74.9,73.7,29.73,South,182,11.0,13.0,96,0.00,,---,0.00,VWS V12.08,2013-07-23 04:37:00,
2013-07-23 00:41:00,74.9,73.7,29.72,South,183,11.0,12.0,96,0.00,,---,0.00,VWS V12.08,2013-07-23 04:41:00,
2013-07-23 00:42:00,74.9,73.7,29.72,South,183,11.0,12.0,96,0.00,,---,0.00,VWS V12.08,2013-07-23 04:42:00,
2013-07-23 00:46:00,74.9,73.7,29.72,South,184,12.0,13.0,96,0.00,,---,0.00,VWS V12.08,2013-07-23 04:46:00,
2013-07-23 00:47:00,74.9,73.7,29.72,South,185,12.0,13.0,96,0.00,,---,0.00,VWS V12.08,2013-07-23 04:47:00,
2013-07-23 00:51:00,74.9,73.7,29.72,South,181,10.0,12.0,96,0.00,,---,0.00,VWS V12.08,2013-07-23 04:51:00,
2013-07-23 00:52:00,74.8,73.6,29.72,South,181,11.0,12.0,96,0.00,,---,0.00,VWS V12.08,2013-07-23 04:52:00,
2013-07-23 00:53:00,74.8,73.6,29.72,South,181,11.0,12.0,96,0.00,,---,0.00,VWS V12.08,2013-07-23 04:53:00,
2013-07-23 00:56:00,74.8,73.6,29.72,South,179,12.0,13.0,96,0.00,,---,0.00,VWS V12.08,2013-07-23 04:56:00,
2013-07-23 00:57:00,74.8,73.6,29.72,South,180,12.0,13.0,96,0.00,,---,0.00,VWS V12.08,2013-07-23 04:57:00,
2013-07-23 00:58:00,74.8,73.6,29.72,South,180,10.0,13.0,96,0.00,,---,0.00,VWS V12.08,2013-07-23 04:58:00,
2013-07-23 01:02:00,74.7,73.5,29.72,South,179,10.0,12.0,96,0.00,,---,0.00,VWS V12.08,2013-07-23 05:02:00,
2013-07-23 01:03:00,74.7,73.5,29.72,South,180,10.0,12.0,96,0.00,,---,0.00,VWS V12.08,2013-07-23 05:03:00,
2013-07-23 01:07:00,74.6,73.4,29.72,South,182,9.0,12.0,96,0.00,,---,0.00,VWS V12.08,2013-07-23 05:07:00,
2013-07-23 01:08:00,74.7,73.5,29.72,South,182,10.0,12.0,96,0.00,,---,0.00,VWS V12.08,2013-07-23 05:08:00,
2013-07-23 01:12:00,74.6,73.4,29.72,South,181,10.0,12.0,96,0.00,,---,0.00,VWS V12.08,2013-07-23 05:12:00,
2013-07-23 01:13:00,74.6,73.4,29.71,South,184,11.0,12.0,96,0.00,,---,0.00,VWS V12.08,2013-07-23 05:13:00,
2013-07-23 01:18:00,74.6,73.4,29.71,South,179,11.0,12.0,96,0.00,,---,0.00,VWS V12.08,2013-07-23 05:18:00,
2013-07-23 01:23:00,74.6,73.4,29.71,South,179,10.0,13.0,96,0.00,,---,0.00,VWS V12.08,2013-07-23 05:23:00,
2013-07-23 01:28:00,74.6,73.4,29.71,South,178,12.0,13.0,96,0.00,,---,0.00,VWS V12.08,2013-07-23 05:28:00,
2013-07-23 01:29:00,74.6,73.4,29.71,South,180,13.0,13.0,96,0.00,,---,0.00,VWS V12.08,2013-07-23 05:29:00,
2013-07-23 01:33:00,74.6,73.4,29.71,South,182,12.0,15.0,96,0.00,,---,0.00,VWS V12.08,2013-07-23 05:33:00,
2013-07-23 01:34:00,74.6,73.4,29.71,South,177,12.0,15.0,96,0.00,,---,0.00,VWS V12.08,2013-07-23 05:34:00,
2013-07-23 01:38:00,74.6,73.4,29.70,South,185,11.0,15.0,96,0.00,,---,0.00,VWS V12.08,2013-07-23 05:38:00,
2013-07-23 01:39:00,74.6,73.4,29.70,South,185,12.0,15.0,96,0.00,,---,0.00,VWS V12.08,2013-07-23 05:39:00,
2013-07-23 01:43:00,74.6,73.7,29.70,South,180,13.0,14.0,97,0.00,,---,0.00,VWS V12.08,2013-07-23 05:43:00,
2013-07-23 01:44:00,74.6,73.7,29.70,South,182,13.0,15.0,97,0.00,,---,0.00,VWS V12.08,2013-07-23 05:44:00,
2013-07-23 01:48:00,74.6,73.7,29.70,South,183,12.0,15.0,97,0.00,,---,0.00,VWS V12.08,2013-07-23 05:48:00,
2013-07-23 01:49:00,74.6,73.4,29.70,South,183,13.0,15.0,96,0.00,,---,0.00,VWS V12.08,2013-07-23 05:49:00,
2013-07-23 01:50:00,74.5,73.3,29.70,South,183,14.0,15.0,96,0.00,,---,0.00,VWS V12.08,2013-07-23 05:50:00,
2013-07-23 01:53:00,74.5,73.6,29.70,South,188,13.0,15.0,97,0.00,,---,0.00,VWS V12.08,2013-07-23 05:53:00,
2013-07-23 01:54:00,74.5,73.6,29.70,South,184,12.0,15.0,97,0.00,,---,0.00,VWS V12.08,2013-07-23 05:54:00,
2013-07-23 01:55:00,74.5,73.6,29.69,SSW,192,11.0,15.0,97,0.00,,---,0.00,VWS V12.08,2013-07-23 05:55:00,
2013-07-23 01:58:00,74.6,73.7,29.70,South,189,10.0,15.0,97,0.00,,---,0.00,VWS V12.08,2013-07-23 05:58:00,
2013-07-23 01:59:00,74.6,73.7,29.70,South,190,10.0,15.0,97,0.00,,---,0.00,VWS V12.08,2013-07-23 05:59:00,
2013-07-23 02:00:00,74.6,73.7,29.70,South,190,10.0,15.0,97,0.00,,---,0.00,VWS V12.08,2013-07-23 06:00:00,
2013-07-23 02:03:00,74.6,73.7,29.69,South,188,10.0,12.0,97,0.00,,---,0.00,VWS V12.08,2013-07-23 06:03:00,
2013-07-23 02:04:00,74.5,73.6,29.69,South,183,10.0,12.0,97,0.00,,---,0.00,VWS V12.08,2013-07-23 06:04:00,
2013-07-23 02:05:00,74.6,73.7,29.69,South,184,10.0,12.0,97,0.00,,---,0.00,VWS V12.08,2013-07-23 06:05:00,
2013-07-23 02:08:00,74.5,73.6,29.69,South,188,10.0,12.0,97,0.00,,---,0.00,VWS V12.08,2013-07-23 06:08:00,
2013-07-23 02:09:00,74.5,73.6,29.69,South,188,10.0,12.0,97,0.00,,---,0.00,VWS V12.08,2013-07-23 06:09:00,
2013-07-23 02:10:00,74.5,73.6,29.69,South,188,9.0,12.0,97,0.00,,---,0.00,VWS V12.08,2013-07-23 06:10:00,
2013-07-23 02:14:00,74.5,73.6,29.69,South,188,8.0,11.0,97,0.00,,---,0.00,VWS V12.08,2013-07-23 06:14:00,
2013-07-23 02:15:00,74.5,73.6,29.69,SSW,194,6.0,11.0,97,0.00,,---,0.00,VWS V12.08,2013-07-23 06:15:00,
2013-07-23 02:19:00,74.4,73.5,29.69,SSW,194,5.0,11.0,97,0.00,,---,0.00,VWS V12.08,2013-07-23 06:19:00,
2013-07-23 02:20:00,74.4,73.5,29.69,SSW,194,6.0,11.0,97,0.00,,---,0.00,VWS V12.08,2013-07-23 06:20:00,
2013-07-23 02:24:00,74.4,73.5,29.69,SSW,194,6.0,7.0,97,0.00,,---,0.00,VWS V12.08,2013-07-23 06:24:00,
2013-07-23 02:25:00,74.4,73.5,29.69,SSW,194,6.0,7.0,97,0.00,,---,0.00,VWS V12.08,2013-07-23 06:25:00,
2013-07-23 02:26:00,74.4,73.5,29.69,SSW,194,6.0,7.0,97,0.00,,---,0.00,VWS V12.08,2013-07-23 06:26:00,
2013-07-23 02:29:00,74.3,73.4,29.69,SSW,194,9.0,9.0,97,0.00,,---,0.00,VWS V12.08,2013-07-23 06:29:00,
2013-07-23 02:30:00,74.3,73.4,29.69,SSW,194,7.0,9.0,97,0.00,,---,0.00,VWS V12.08,2013-07-23 06:30:00,
2013-07-23 02:31:00,74.3,73.4,29.69,SSW,194,7.0,9.0,97,0.00,,---,0.00,VWS V12.08,2013-07-23 06:31:00,
2013-07-23 02:34:00,74.2,73.0,29.69,SSW,193,9.0,10.0,96,0.00,,---,0.00,VWS V12.08,2013-07-23 06:34:00,
2013-07-23 02:35:00,74.2,73.0,29.69,SSW,193,9.0,10.0,96,0.00,,---,0.00,VWS V12.08,2013-07-23 06:35:00,
2013-07-23 02:36:00,74.2,73.3,29.69,SSW,193,9.0,10.0,97,0.00,,---,0.00,VWS V12.08,2013-07-23 06:36:00,
2013-07-23 02:39:00,74.2,73.3,29.69,SSW,193,7.0,10.0,97,0.00,,---,0.00,VWS V12.08,2013-07-23 06:39:00,
2013-07-23 02:40:00,74.2,73.3,29.69,SSW,193,7.0,10.0,97,0.00,,---,0.00,VWS V12.08,2013-07-23 06:40:00,
2013-07-23 02:41:00,74.2,73.3,29.69,SSW,193,8.0,10.0,97,0.00,,---,0.00,VWS V12.08,2013-07-23 06:41:00,
2013-07-23 02:44:00,74.2,73.3,29.68,South,190,9.0,10.0,97,0.00,,---,0.00,VWS V12.08,2013-07-23 06:44:00,
2013-07-23 02:45:00,74.2,73.3,29.68,SSW,198,9.0,10.0,97,0.00,,---,0.00,VWS V12.08,2013-07-23 06:45:00,
2013-07-23 02:46:00,74.2,73.3,29.68,SSW,196,7.0,10.0,97,0.00,,---,0.00,VWS V12.08,2013-07-23 06:46:00,
2013-07-23 02:50:00,74.3,73.4,29.68,SSW,200,10.0,11.0,97,0.00,,---,0.00,VWS V12.08,2013-07-23 06:50:00,
2013-07-23 02:51:00,74.3,73.4,29.68,SSW,194,7.0,11.0,97,0.00,,---,0.00,VWS V12.08,2013-07-23 06:51:00,
2013-07-23 02:55:00,74.2,73.3,29.68,SSW,208,6.0,9.0,97,0.00,,---,0.00,VWS V12.08,2013-07-23 06:55:00,
2013-07-23 02:56:00,74.2,73.3,29.68,SW,219,3.0,9.0,97,0.00,,---,0.00,VWS V12.08,2013-07-23 06:56:00,
2013-07-23 03:00:00,74.2,73.3,29.67,SSW,197,6.0,10.0,97,0.00,,---,0.00,VWS V12.08,2013-07-23 07:00:00,
2013-07-23 03:01:00,74.2,73.3,29.67,SSW,197,6.0,10.0,97,0.00,,---,0.00,VWS V12.08,2013-07-23 07:01:00,
2013-07-23 03:02:00,74.2,73.3,29.67,SSW,196,4.0,9.0,97,0.00,,---,0.00,VWS V12.08,2013-07-23 07:02:00,
2013-07-23 03:05:00,74.2,73.3,29.67,SSW,198,9.0,10.0,97,0.00,,---,0.00,VWS V12.08,2013-07-23 07:05:00,
2013-07-23 03:06:00,74.2,73.3,29.67,SSW,200,7.0,10.0,97,0.00,,---,0.00,VWS V12.08,2013-07-23 07:06:00,
2013-07-23 03:07:00,74.2,73.3,29.67,SSW,203,9.0,10.0,97,0.00,,---,0.00,VWS V12.08,2013-07-23 07:07:00,
2013-07-23 03:10:00,74.2,73.3,29.67,SSW,207,6.0,10.0,97,0.00,,---,0.00,VWS V12.08,2013-07-23 07:10:00,
2013-07-23 03:11:00,74.2,73.3,29.67,SW,222,9.0,9.0,97,0.00,,---,0.00,VWS V12.08,2013-07-23 07:11:00,
2013-07-23 03:12:00,74.2,73.3,29.67,SSW,204,9.0,9.0,97,0.00,,---,0.00,VWS V12.08,2013-07-23 07:12:00,
2013-07-23 03:15:00,74.1,73.2,29.66,SSW,204,7.0,9.0,97,0.00,,---,0.00,VWS V12.08,2013-07-23 07:15:00,
2013-07-23 03:16:00,74.1,73.2,29.66,SSW,208,6.0,11.0,97,0.00,,---,0.00,VWS V12.08,2013-07-23 07:16:00,
2013-07-23 03:17:00,74.1,73.2,29.66,SSW,205,9.0,11.0,97,0.00,,---,0.00,VWS V12.08,2013-07-23 07:17:00,
2013-07-23 03:20:00,74.0,73.1,29.66,SSW,200,9.0,12.0,97,0.00,,---,0.00,VWS V12.08,2013-07-23 07:20:00,
2013-07-23 03:21:00,74.0,73.1,29.66,SSW,211,10.0,12.0,97,0.00,,---,0.00,VWS V12.08,2013-07-23 07:21:00,
2013-07-23 03:22:00,74.0,73.1,29.66,SSW,211,8.0,11.0,97,0.00,,---,0.00,VWS V12.08,2013-07-23 07:22:00,
2013-07-23 03:26:00,73.9,73.0,29.66,SSW,212,10.0,12.0,97,0.00,,---,0.00,VWS V12.08,2013-07-23 07:26:00,
2013-07-23 03:28:00,74.0,73.1,29.66,SW,217,6.0,12.0,97,0.00,,---,0.00,VWS V12.08,2013-07-23 07:28:00,
2013-07-23 03:31:00,74.0,73.1,29.67,SW,221,9.0,9.0,97,0.00,,---,0.00,VWS V12.08,2013-07-23 07:31:00,
2013-07-23 03:33:00,74.0,73.1,29.67,SW,216,5.0,11.0,97,0.00,,---,0.00,VWS V12.08,2013-07-23 07:33:00,
2013-07-23 03:36:00,74.0,73.1,29.67,SW,231,9.0,11.0,97,0.00,,---,0.00,VWS V12.08,2013-07-23 07:36:00,
2013-07-23 03:37:00,74.0,73.1,29.67,WSW,245,10.0,11.0,97,0.00,,---,0.00,VWS V12.08,2013-07-23 07:37:00,
2013-07-23 03:38:00,74.0,73.1,29.67,SW,229,4.0,11.0,97,0.00,,---,0.00,VWS V12.08,2013-07-23 07:38:00,
2013-07-23 03:41:00,73.9,73.0,29.66,SSW,212,10.0,10.0,97,0.00,,---,0.00,VWS V12.08,2013-07-23 07:41:00,
2013-07-23 03:42:00,73.9,73.0,29.66,SW,216,10.0,10.0,97,0.00,,---,0.00,VWS V12.08,2013-07-23 07:42:00,
2013-07-23 03:43:00,73.9,73.0,29.66,SW,219,9.0,13.0,97,0.00,,---,0.00,VWS V12.08,2013-07-23 07:43:00,
2013-07-23 03:46:00,73.7,72.8,29.66,SSW,196,10.0,13.0,97,0.00,,---,0.00,VWS V12.08,2013-07-23 07:46:00,
2013-07-23 03:47:00,73.7,72.8,29.66,SW,218,7.0,13.0,97,0.00,,---,0.00,VWS V12.08,2013-07-23 07:47:00,
2013-07-23 03:48:00,73.7,72.8,29.66,SW,230,8.0,13.0,97,0.00,,---,0.00,VWS V12.08,2013-07-23 07:48:00,
2013-07-23 03:51:00,73.5,72.6,29.66,SSW,211,10.0,10.0,97,0.00,,---,0.00,VWS V12.08,2013-07-23 07:51:00,
2013-07-23 03:52:00,73.5,72.6,29.66,SW,224,6.0,10.0,97,0.00,,---,0.00,VWS V12.08,2013-07-23 07:52:00,
2013-07-23 03:53:00,73.4,72.5,29.66,SSW,208,8.0,10.0,97,0.00,,---,0.00,VWS V12.08,2013-07-23 07:53:00,
2013-07-23 03:57:00,73.3,72.4,29.66,SSW,206,10.0,13.0,97,0.00,,---,0.00,VWS V12.08,2013-07-23 07:57:00,
2013-07-23 03:58:00,73.2,72.3,29.66,SW,215,8.0,13.0,97,0.00,,---,0.00,VWS V12.08,2013-07-23 07:58:00,
2013-07-23 04:02:00,73.2,72.3,29.66,SSW,209,7.0,11.0,97,0.00,,---,0.00,VWS V12.08,2013-07-23 08:02:00,
2013-07-23 04:03:00,73.1,72.2,29.66,SSW,193,7.0,13.0,97,0.00,,---,0.00,VWS V12.08,2013-07-23 08:03:00,
2013-07-23 04:07:00,73.1,72.2,29.66,SW,224,10.0,14.0,97,0.00,,---,0.00,VWS V12.08,2013-07-23 08:07:00,
2013-07-23 04:08:00,73.1,72.2,29.66,SSW,202,8.0,14.0,97,0.00,,---,0.00,VWS V12.08,2013-07-23 08:08:00,
2013-07-23 04:12:00,73.0,72.1,29.65,SSW,200,10.0,15.0,97,0.00,,---,0.00,VWS V12.08,2013-07-23 08:12:00,
2013-07-23 04:13:00,73.0,72.1,29.65,SSW,209,11.0,15.0,97,0.00,,---,0.00,VWS V12.08,2013-07-23 08:13:00,
2013-07-23 04:14:00,73.0,72.1,29.65,SSW,200,12.0,15.0,97,0.00,,---,0.00,VWS V12.08,2013-07-23 08:14:00,
2013-07-23 04:17:00,72.9,72.0,29.65,SSW,209,12.0,15.0,97,0.00,,---,0.00,VWS V12.08,2013-07-23 08:17:00,
2013-07-23 04:18:00,72.9,72.0,29.65,SW,219,12.0,15.0,97,0.00,,---,0.00,VWS V12.08,2013-07-23 08:18:00,
2013-07-23 04:19:00,72.8,71.9,29.65,South,187,12.0,15.0,97,0.00,,---,0.00,VWS V12.08,2013-07-23 08:19:00,
2013-07-23 04:22:00,72.8,71.9,29.65,SSW,211,9.0,13.0,97,0.00,,---,0.00,VWS V12.08,2013-07-23 08:22:00,
2013-07-23 04:23:00,72.8,71.9,29.65,SSW,213,9.0,13.0,97,0.00,,---,0.00,VWS V12.08,2013-07-23 08:23:00,
2013-07-23 04:24:00,72.8,71.9,29.65,SW,226,6.0,13.0,97,0.00,,---,0.00,VWS V12.08,2013-07-23 08:24:00,
2013-07-23 04:27:00,72.7,71.8,29.65,SW,220,6.0,13.0,97,0.00,,---,0.00,VWS V12.08,2013-07-23 08:27:00,
2013-07-23 04:28:00,72.8,71.9,29.65,SW,234,6.0,13.0,97,0.00,,---,0.00,VWS V12.08,2013-07-23 08:28:00,
2013-07-23 04:29:00,72.7,71.8,29.65,SSW,211,10.0,13.0,97,0.00,,---,0.00,VWS V12.08,2013-07-23 08:29:00,
2013-07-23 04:32:00,72.7,71.8,29.65,SW,224,9.0,12.0,97,0.00,,---,0.00,VWS V12.08,2013-07-23 08:32:00,
2013-07-23 04:33:00,72.7,71.8,29.65,SSW,212,10.0,12.0,97,0.00,,---,0.00,VWS V12.08,2013-07-23 08:33:00,
2013-07-23 04:34:00,72.6,71.7,29.65,SW,225,6.0,12.0,97,0.00,,---,0.00,VWS V12.08,2013-07-23 08:34:00,
2013-07-23 04:37:00,72.6,71.7,29.65,SW,224,4.0,12.0,97,0.00,,---,0.00,VWS V12.08,2013-07-23 08:37:00,
2013-07-23 04:38:00,72.6,71.7,29.65,SW,227,4.0,12.0,97,0.00,,---,0.00,VWS V12.08,2013-07-23 08:38:00,
2013-07-23 04:39:00,72.6,71.7,29.65,SW,218,7.0,12.0,97,0.00,,---,0.00,VWS V12.08,2013-07-23 08:39:00,
2013-07-23 04:43:00,72.6,71.7,29.65,SW,222,5.0,10.0,97,0.00,,---,0.00,VWS V12.08,2013-07-23 08:43:00,
2013-07-23 04:44:00,72.6,71.7,29.65,SW,229,6.0,10.0,97,0.00,,---,0.00,VWS V12.08,2013-07-23 08:44:00,
2013-07-23 04:48:00,72.7,71.8,29.65,SW,226,6.0,10.0,97,0.00,,---,0.00,VWS V12.08,2013-07-23 08:48:00,
2013-07-23 04:49:00,72.7,71.8,29.65,SW,226,4.0,10.0,97,0.00,,---,0.00,VWS V12.08,2013-07-23 08:49:00,
2013-07-23 04:53:00,72.7,71.8,29.64,SW,215,5.0,6.0,97,0.00,,---,0.00,VWS V12.08,2013-07-23 08:53:00,
2013-07-23 04:54:00,72.7,71.8,29.65,SW,218,4.0,6.0,97,0.00,,---,0.00,VWS V12.08,2013-07-23 08:54:00,
2013-07-23 04:55:00,72.7,71.8,29.65,SW,217,4.0,6.0,97,0.00,,---,0.00,VWS V12.08,2013-07-23 08:55:00,
2013-07-23 04:58:00,72.6,71.7,29.65,SSW,209,4.0,10.0,97,0.00,,---,0.00,VWS V12.08,2013-07-23 08:58:00,
2013-07-23 04:59:00,72.6,71.7,29.65,SW,216,6.0,10.0,97,0.00,,---,0.00,VWS V12.08,2013-07-23 08:59:00,
2013-07-23 05:00:00,72.6,71.7,29.65,SW,219,8.0,10.0,97,0.00,,---,0.00,VWS V12.08,2013-07-23 09:00:00,
2013-07-23 05:03:00,72.6,71.7,29.65,SW,230,6.0,9.0,97,0.00,,---,0.00,VWS V12.08,2013-07-23 09:03:00,
2013-07-23 05:04:00,72.6,71.7,29.65,WSW,237,5.0,9.0,97,0.00,,---,0.00,VWS V12.08,2013-07-23 09:04:00,
2013-07-23 05:05:00,72.6,71.7,29.65,WSW,252,7.0,9.0,97,0.00,,---,0.00,VWS V12.08,2013-07-23 09:05:00,
2013-07-23 05:08:00,72.9,72.0,29.65,WSW,257,2.0,9.0,97,0.00,,---,0.00,VWS V12.08,2013-07-23 09:08:00,
2013-07-23 05:09:00,73.0,72.1,29.65,WSW,257,2.0,9.0,97,0.00,,---,0.00,VWS V12.08,2013-07-23 09:09:00,
2013-07-23 05:10:00,73.1,72.2,29.65,WSW,257,4.0,9.0,97,0.00,,---,0.00,VWS V12.08,2013-07-23 09:10:00,
2013-07-23 05:11:00,73.1,72.2,29.65,WSW,257,6.0,9.0,97,0.00,,---,0.00,VWS V12.08,2013-07-23 09:11:00,
2013-07-23 05:13:00,73.3,72.4,29.65,WSW,254,6.0,6.0,97,0.00,,---,0.00,VWS V12.08,2013-07-23 09:13:00,
2013-07-23 05:14:00,73.4,72.5,29.65,WSW,254,5.0,6.0,97,0.00,,---,0.00,VWS V12.08,2013-07-23 09:14:00,
2013-07-23 05:15:00,73.5,72.6,29.65,WSW,254,5.0,6.0,97,0.00,,---,0.00,VWS V12.08,2013-07-23 09:15:00,
2013-07-23 05:16:00,73.5,72.6,29.65,WSW,254,3.0,6.0,97,0.00,,---,0.00,VWS V12.08,2013-07-23 09:16:00,
2013-07-23 05:18:00,73.6,72.7,29.65,SW,227,3.0,6.0,97,0.00,,---,0.00,VWS V12.08,2013-07-23 09:18:00,
2013-07-23 05:19:00,73.6,72.7,29.65,SW,227,3.0,6.0,97,0.00,,---,0.00,VWS V12.08,2013-07-23 09:19:00,
2013-07-23 05:20:00,73.6,72.7,29.65,SW,227,4.0,6.0,97,0.00,,---,0.00,VWS V12.08,2013-07-23 09:20:00,
2013-07-23 05:21:00,73.5,72.6,29.65,SW,227,5.0,6.0,97,0.00,,---,0.00,VWS V12.08,2013-07-23 09:21:00,
2013-07-23 05:24:00,73.2,72.3,29.65,SW,222,5.0,6.0,97,0.00,,---,0.00,VWS V12.08,2013-07-23 09:24:00,
2013-07-23 05:25:00,73.1,72.2,29.65,SW,222,4.0,6.0,97,0.00,,---,0.00,VWS V12.08,2013-07-23 09:25:00,
2013-07-23 05:26:00,73.0,72.1,29.65,SW,222,5.0,6.0,97,0.00,,---,0.00,VWS V12.08,2013-07-23 09:26:00,
2013-07-23 05:29:00,72.8,71.9,29.65,SW,215,5.0,7.0,97,0.00,,---,0.00,VWS V12.08,2013-07-23 09:29:00,
2013-07-23 05:30:00,72.8,71.9,29.65,SW,235,7.0,7.0,97,0.00,,---,0.00,VWS V12.08,2013-07-23 09:30:00,
2013-07-23 05:31:00,72.7,71.8,29.65,SW,232,5.0,5.0,97,0.00,,---,0.00,VWS V12.08,2013-07-23 09:31:00,
2013-07-23 05:34:00,72.9,72.0,29.65,SSW,213,4.0,7.0,97,0.00,,---,0.00,VWS V12.08,2013-07-23 09:34:00,
2013-07-23 05:35:00,72.9,72.0,29.65,SSW,213,5.0,7.0,97,0.00,,---,0.00,VWS V12.08,2013-07-23 09:35:00,
2013-07-23 05:36:00,72.9,72.0,29.65,SSW,213,6.0,7.0,97,0.00,,---,0.00,VWS V12.08,2013-07-23 09:36:00,
2013-07-23 05:39:00,72.8,71.9,29.65,SSW,211,5.0,7.0,97,0.00,,---,0.00,VWS V12.08,2013-07-23 09:39:00,
2013-07-23 05:40:00,72.8,71.9,29.65,SSW,211,4.0,7.0,97,0.00,,---,0.00,VWS V12.08,2013-07-23 09:40:00,
2013-07-23 05:41:00,72.7,71.8,29.65,SSW,210,5.0,7.0,97,0.00,,---,0.00,VWS V12.08,2013-07-23 09:41:00,
2013-07-23 05:42:00,72.6,71.7,29.65,SSW,209,6.0,8.0,97,0.00,,---,0.00,VWS V12.08,2013-07-23 09:42:00,
2013-07-23 05:44:00,72.6,71.7,29.65,SW,225,10.0,10.0,97,0.00,,---,0.00,VWS V12.08,2013-07-23 09:44:00,
2013-07-23 05:45:00,72.6,71.7,29.65,SW,223,5.0,10.0,97,0.00,,---,0.00,VWS V12.08,2013-07-23 09:45:00,
2013-07-23 05:46:00,72.6,71.7,29.65,SSW,205,5.0,10.0,97,0.00,,---,0.00,VWS V12.08,2013-07-23 09:46:00,
2013-07-23 05:47:00,72.7,71.8,29.65,SSW,209,4.0,10.0,97,0.00,,---,0.00,VWS V12.08,2013-07-23 09:47:00,
2013-07-23 05:49:00,72.8,71.9,29.65,SW,233,6.0,10.0,97,0.00,,---,0.00,VWS V12.08,2013-07-23 09:49:00,
2013-07-23 05:50:00,72.8,71.9,29.65,WSW,238,4.0,10.0,97,0.00,,---,0.00,VWS V12.08,2013-07-23 09:50:00,
2013-07-23 05:51:00,72.9,72.0,29.65,SW,219,6.0,10.0,97,0.00,,---,0.00,VWS V12.08,2013-07-23 09:51:00,
2013-07-23 05:52:00,72.9,72.0,29.65,WSW,246,1.0,9.0,97,0.00,,---,0.00,VWS V12.08,2013-07-23 09:52:00,
2013-07-23 05:54:00,73.1,72.2,29.65,WSW,253,5.0,9.0,97,0.00,,---,0.00,VWS V12.08,2013-07-23 09:54:00,
2013-07-23 05:55:00,73.1,72.2,29.65,WSW,250,5.0,9.0,97,0.00,,---,0.00,VWS V12.08,2013-07-23 09:55:00,
2013-07-23 05:56:00,73.2,72.3,29.65,WSW,240,6.0,9.0,97,0.00,,---,0.00,VWS V12.08,2013-07-23 09:56:00,
2013-07-23 05:57:00,73.3,72.4,29.65,WSW,250,4.0,9.0,97,0.00,,---,0.00,VWS V12.08,2013-07-23 09:57:00,
2013-07-23 06:00:00,73.6,72.7,29.65,WSW,256,6.0,9.0,97,0.00,,---,0.00,VWS V12.08,2013-07-23 10:00:00,
2013-07-23 06:01:00,73.7,72.8,29.65,WSW,256,4.0,4.0,97,0.00,,---,0.00,VWS V12.08,2013-07-23 10:01:00,
2013-07-23 06:02:00,73.8,72.9,29.65,WSW,256,6.0,6.0,97,0.00,,---,0.00,VWS V12.08,2013-07-23 10:02:00,
2013-07-23 06:05:00,73.9,73.0,29.65,West,265,4.0,7.0,97,0.00,,---,0.00,VWS V12.08,2013-07-23 10:05:00,
2013-07-23 06:06:00,73.9,73.0,29.65,West,265,3.0,7.0,97,0.00,,---,0.00,VWS V12.08,2013-07-23 10:06:00,
2013-07-23 06:07:00,74.0,73.1,29.65,West,265,1.0,7.0,97,0.00,,---,0.00,VWS V12.08,2013-07-23 10:07:00,
2013-07-23 06:10:00,74.0,73.1,29.65,West,265,3.0,7.0,97,0.00,,---,0.00,VWS V12.08,2013-07-23 10:10:00,
2013-07-23 06:11:00,74.0,73.1,29.65,West,265,2.0,7.0,97,0.00,,---,0.00,VWS V12.08,2013-07-23 10:11:00,
2013-07-23 06:12:00,74.1,73.2,29.65,West,265,5.0,5.0,97,0.00,,---,0.00,VWS V12.08,2013-07-23 10:12:00,
2013-07-23 06:15:00,74.1,73.2,29.65,West,265,5.0,6.0,97,0.00,,---,0.00,VWS V12.08,2013-07-23 10:15:00,
2013-07-23 06:16:00,74.1,73.2,29.65,West,265,3.0,6.0,97,0.00,,---,0.00,VWS V12.08,2013-07-23 10:16:00,
2013-07-23 06:17:00,74.1,73.2,29.65,West,266,5.0,6.0,97,0.00,,---,0.00,VWS V12.08,2013-07-23 10:17:00,
2013-07-23 06:20:00,74.2,73.3,29.65,West,268,4.0,7.0,97,0.00,,---,0.00,VWS V12.08,2013-07-23 10:20:00,
2013-07-23 06:21:00,74.2,73.3,29.65,West,267,6.0,6.0,97,0.00,,---,0.00,VWS V12.08,2013-07-23 10:21:00,
2013-07-23 06:22:00,74.2,73.3,29.65,West,267,4.0,6.0,97,0.00,,---,0.00,VWS V12.08,2013-07-23 10:22:00,
2013-07-23 06:25:00,74.2,73.3,29.66,West,273,6.0,6.0,97,0.00,,---,0.00,VWS V12.08,2013-07-23 10:25:00,
2013-07-23 06:26:00,74.2,73.3,29.66,West,273,2.0,6.0,97,0.00,,---,0.00,VWS V12.08,2013-07-23 10:26:00,
2013-07-23 06:27:00,74.2,73.3,29.66,West,273,3.0,6.0,97,0.00,,---,0.00,VWS V12.08,2013-07-23 10:27:00,
2013-07-23 06:31:00,74.2,73.3,29.66,West,280,3.0,7.0,97,0.00,,---,0.00,VWS V12.08,2013-07-23 10:31:00,
2013-07-23 06:32:00,74.2,73.3,29.66,West,280,4.0,5.0,97,0.00,,---,0.00,VWS V12.08,2013-07-23 10:32:00,
2013-07-23 06:36:00,74.3,73.4,29.65,West,277,3.0,6.0,97,0.00,,---,0.00,VWS V12.08,2013-07-23 10:36:00,
2013-07-23 06:37:00,74.3,73.4,29.65,West,277,3.0,6.0,97,0.00,,---,0.00,VWS V12.08,2013-07-23 10:37:00,
2013-07-23 06:41:00,74.3,73.4,29.65,WSW,252,2.0,2.0,97,0.00,,---,0.00,VWS V12.08,2013-07-23 10:41:00,
2013-07-23 06:42:00,74.3,73.4,29.65,WSW,252,2.0,2.0,97,0.00,,---,0.00,VWS V12.08,2013-07-23 10:42:00,
2013-07-23 06:46:00,74.4,73.5,29.64,WSW,252,3.0,5.0,97,0.00,,---,0.00,VWS V12.08,2013-07-23 10:46:00,
2013-07-23 06:47:00,74.4,73.5,29.64,WSW,252,3.0,5.0,97,0.00,,---,0.00,VWS V12.08,2013-07-23 10:47:00,
2013-07-23 06:48:00,74.4,73.5,29.65,WSW,252,2.0,5.0,97,0.00,,---,0.00,VWS V12.08,2013-07-23 10:48:00,
2013-07-23 06:51:00,74.5,73.6,29.65,WSW,252,3.0,4.0,97,0.00,,---,0.00,VWS V12.08,2013-07-23 10:51:00,
2013-07-23 06:52:00,74.5,73.6,29.65,WSW,252,2.0,5.0,97,0.00,,---,0.00,VWS V12.08,2013-07-23 10:52:00,
2013-07-23 06:53:00,74.6,73.7,29.65,WSW,252,1.0,5.0,97,0.00,,---,0.00,VWS V12.08,2013-07-23 10:53:00,
2013-07-23 06:56:00,74.5,73.6,29.64,SW,218,4.0,6.0,97,0.00,,---,0.00,VWS V12.08,2013-07-23 10:56:00,
2013-07-23 06:57:00,74.4,73.5,29.64,SW,218,4.0,6.0,97,0.00,,---,0.00,VWS V12.08,2013-07-23 10:57:00,
2013-07-23 06:58:00,74.3,73.4,29.64,SW,218,4.0,6.0,97,0.00,,---,0.00,VWS V12.08,2013-07-23 10:58:00,
2013-07-23 07:01:00,74.1,73.2,29.64,SW,218,3.0,5.0,97,0.00,,---,0.00,VWS V12.08,2013-07-23 11:01:00,
2013-07-23 07:02:00,74.1,73.2,29.64,SW,218,4.0,5.0,97,0.00,,---,0.00,VWS V12.08,2013-07-23 11:02:00,
2013-07-23 07:03:00,74.1,73.2,29.64,SW,218,3.0,5.0,97,0.00,,---,0.00,VWS V12.08,2013-07-23 11:03:00,
2013-07-23 07:06:00,73.7,72.8,29.64,SW,218,4.0,5.0,97,0.00,,---,0.00,VWS V12.08,2013-07-23 11:06:00,
2013-07-23 07:07:00,73.7,72.8,29.64,SW,218,4.0,7.0,97,0.00,,---,0.00,VWS V12.08,2013-07-23 11:07:00,
2013-07-23 07:08:00,73.6,72.7,29.65,SSW,213,4.0,9.0,97,0.00,,---,0.00,VWS V12.08,2013-07-23 11:08:00,
2013-07-23 07:09:00,73.5,72.6,29.65,SSW,208,6.0,9.0,97,0.00,,---,0.00,VWS V12.08,2013-07-23 11:09:00,
2013-07-23 07:11:00,73.5,72.6,29.64,SW,214,4.0,5.0,97,0.00,,---,0.00,VWS V12.08,2013-07-23 11:11:00,
2013-07-23 07:12:00,73.5,72.6,29.64,SW,225,3.0,6.0,97,0.00,,---,0.00,VWS V12.08,2013-07-23 11:12:00,
2013-07-23 07:13:00,73.6,72.7,29.64,SW,225,4.0,6.0,97,0.00,,---,0.00,VWS V12.08,2013-07-23 11:13:00,
2013-07-23 07:14:00,73.6,72.7,29.64,SW,223,6.0,6.0,97,0.00,,---,0.00,VWS V12.08,2013-07-23 11:14:00,
2013-07-23 07:16:00,73.6,72.7,29.64,SW,227,5.0,8.0,97,0.00,,---,0.00,VWS V12.08,2013-07-23 11:16:00,
2013-07-23 07:17:00,73.6,72.7,29.64,SSW,196,5.0,8.0,97,0.00,,---,0.00,VWS V12.08,2013-07-23 11:17:00,
2013-07-23 07:18:00,73.5,72.6,29.64,SW,227,4.0,8.0,97,0.00,,---,0.00,VWS V12.08,2013-07-23 11:18:00,
2013-07-23 07:19:00,73.6,72.7,29.64,SW,234,5.0,8.0,97,0.00,,---,0.00,VWS V12.08,2013-07-23 11:19:00,
2013-07-23 07:21:00,73.7,72.8,29.64,SW,236,6.0,6.0,97,0.00,,---,0.00,VWS V12.08,2013-07-23 11:21:00,
2013-07-23 07:22:00,73.8,72.9,29.64,SW,223,3.0,7.0,97,0.00,,---,0.00,VWS V12.08,2013-07-23 11:22:00,
2013-07-23 07:23:00,73.9,73.0,29.64,SW,223,5.0,7.0,97,0.00,,---,0.00,VWS V12.08,2013-07-23 11:23:00,
2013-07-23 07:24:00,74.0,73.1,29.64,SW,231,5.0,7.0,97,0.00,,---,0.00,VWS V12.08,2013-07-23 11:24:00,
2013-07-23 07:27:00,74.1,73.2,29.64,SW,232,3.0,7.0,97,0.00,,---,0.00,VWS V12.08,2013-07-23 11:27:00,
2013-07-23 07:28:00,74.2,73.3,29.64,SW,225,6.0,7.0,97,0.00,,---,0.00,VWS V12.08,2013-07-23 11:28:00,
2013-07-23 07:30:00,74.2,73.3,29.64,WSW,251,5.0,7.0,97,0.00,,---,0.00,VWS V12.08,2013-07-23 11:30:00,
2013-07-23 07:32:00,74.4,73.5,29.64,WSW,248,3.0,6.0,97,0.00,,---,0.00,VWS V12.08,2013-07-23 11:32:00,
2013-07-23 07:33:00,74.5,73.6,29.64,SW,234,3.0,8.0,97,0.00,,---,0.00,VWS V12.08,2013-07-23 11:33:00,
2013-07-23 07:34:00,74.6,73.7,29.64,SW,222,9.0,9.0,97,0.00,,---,0.00,VWS V12.08,2013-07-23 11:34:00,
2013-07-23 07:35:00,74.6,73.7,29.64,SW,236,7.0,10.0,97,0.00,,---,0.00,VWS V12.08,2013-07-23 11:35:00,
2013-07-23 07:37:00,74.8,73.9,29.64,SW,236,3.0,10.0,97,0.00,,---,0.00,VWS V12.08,2013-07-23 11:37:00,
2013-07-23 07:38:00,74.9,74.0,29.64,SW,230,6.0,10.0,97,0.00,,---,0.00,VWS V12.08,2013-07-23 11:38:00,
2013-07-23 07:39:00,75.0,74.1,29.64,WSW,252,6.0,10.0,97,0.00,,---,0.00,VWS V12.08,2013-07-23 11:39:00,
2013-07-23 07:40:00,75.0,74.1,29.64,WSW,242,8.0,10.0,97,0.00,,---,0.00,VWS V12.08,2013-07-23 11:40:00,
2013-07-23 07:42:00,75.1,74.2,29.64,SW,227,5.0,9.0,97,0.00,,---,0.00,VWS V12.08,2013-07-23 11:42:00,
2013-07-23 07:43:00,75.1,74.2,29.64,SSW,194,9.0,9.0,97,0.00,,---,0.00,VWS V12.08,2013-07-23 11:43:00,
2013-07-23 07:44:00,75.2,74.3,29.64,SW,232,10.0,10.0,97,0.00,,---,0.00,VWS V12.08,2013-07-23 11:44:00,
2013-07-23 07:45:00,75.3,74.4,29.63,WSW,240,7.0,10.0,97,0.00,,---,0.00,VWS V12.08,2013-07-23 11:45:00,
2013-07-23 07:47:00,75.5,74.6,29.63,SW,236,5.0,10.0,97,0.00,,---,0.00,VWS V12.08,2013-07-23 11:47:00,
2013-07-23 07:48:00,75.5,74.6,29.63,SW,236,3.0,10.0,97,0.00,,---,0.00,VWS V12.08,2013-07-23 11:48:00,
2013-07-23 07:49:00,75.5,74.6,29.63,WSW,240,5.0,10.0,97,0.00,,---,0.00,VWS V12.08,2013-07-23 11:49:00,
2013-07-23 07:50:00,75.7,74.8,29.63,WSW,240,3.0,10.0,97,0.00,,---,0.00,VWS V12.08,2013-07-23 11:50:00,
2013-07-23 07:53:00,75.8,74.9,29.63,WSW,251,6.0,7.0,97,0.00,,---,0.00,VWS V12.08,2013-07-23 11:53:00,
2013-07-23 07:54:00,75.9,75.0,29.63,West,259,3.0,7.0,97,0.00,,---,0.00,VWS V12.08,2013-07-23 11:54:00,
2013-07-23 07:55:00,76.0,75.1,29.63,WSW,245,5.0,9.0,97,0.00,,---,0.00,VWS V12.08,2013-07-23 11:55:00,
2013-07-23 07:58:00,76.2,75.3,29.63,WSW,251,6.0,9.0,97,0.00,,---,0.00,VWS V12.08,2013-07-23 11:58:00,
2013-07-23 07:59:00,76.3,75.4,29.63,WSW,250,4.0,9.0,97,0.00,,---,0.00,VWS V12.08,2013-07-23 11:59:00,
2013-07-23 08:00:00,76.3,75.4,29.63,WSW,244,2.0,9.0,97,0.00,,---,0.00,VWS V12.08,2013-07-23 12:00:00,
2013-07-23 08:02:00,76.6,75.7,29.63,SW,236,2.0,6.0,97,0.00,,---,0.00,VWS V12.08,2013-07-23 12:02:00,
2013-07-23 08:03:00,76.6,75.7,29.63,SW,236,2.0,6.0,97,0.00,,---,0.00,VWS V12.08,2013-07-23 12:03:00,
2013-07-23 08:04:00,76.6,75.7,29.63,WSW,238,4.0,6.0,97,0.00,,---,0.00,VWS V12.08,2013-07-23 12:04:00,
2013-07-23 08:05:00,76.6,75.7,29.63,WSW,238,1.0,6.0,97,0.00,,---,0.00,VWS V12.08,2013-07-23 12:05:00,
2013-07-23 08:08:00,76.7,75.8,29.63,SW,232,7.0,7.0,97,0.00,,---,0.00,VWS V12.08,2013-07-23 12:08:00,
2013-07-23 08:09:00,76.7,75.8,29.63,SW,231,6.0,11.0,97,0.00,,---,0.00,VWS V12.08,2013-07-23 12:09:00,
2013-07-23 08:10:00,76.7,75.5,29.63,SW,229,3.0,11.0,96,0.00,,---,0.00,VWS V12.08,2013-07-23 12:10:00,
2013-07-23 08:11:00,76.7,75.5,29.63,SW,229,2.0,11.0,96,0.00,,---,0.00,VWS V12.08,2013-07-23 12:11:00,
2013-07-23 08:13:00,76.7,75.5,29.63,SW,222,4.0,7.0,96,0.00,,---,0.00,VWS V12.08,2013-07-23 12:13:00,
2013-07-23 08:14:00,76.7,75.5,29.63,SW,226,3.0,9.0,96,0.00,,---,0.00,VWS V12.08,2013-07-23 12:14:00,
2013-07-23 08:15:00,76.8,75.6,29.63,West,279,7.0,9.0,96,0.00,,---,0.00,VWS V12.08,2013-07-23 12:15:00,
2013-07-23 08:16:00,76.9,75.7,29.63,WSW,251,4.0,9.0,96,0.00,,---,0.00,VWS V12.08,2013-07-23 12:16:00,
2013-07-23 08:18:00,77.2,76.0,29.63,SW,234,7.0,11.0,96,0.00,,---,0.00,VWS V12.08,2013-07-23 12:18:00,
2013-07-23 08:19:00,77.3,76.1,29.63,SW,236,4.0,11.0,96,0.00,,---,0.00,VWS V12.08,2013-07-23 12:19:00,
2013-07-23 08:20:00,77.5,76.3,29.63,SW,234,4.0,11.0,96,0.00,,---,0.00,VWS V12.08,2013-07-23 12:20:00,
2013-07-23 08:21:00,77.6,76.4,29.63,WSW,245,3.0,3.0,96,0.00,,---,0.00,VWS V12.08,2013-07-23 12:21:00,
2013-07-23 08:23:00,77.8,76.6,29.63,WSW,251,4.0,10.0,96,0.00,,---,0.00,VWS V12.08,2013-07-23 12:23:00,
2013-07-23 08:24:00,77.8,76.6,29.62,WSW,249,5.0,10.0,96,0.00,,---,0.00,VWS V12.08,2013-07-23 12:24:00,
2013-07-23 08:25:00,77.9,76.7,29.62,WSW,249,7.0,10.0,96,0.00,,---,0.00,VWS V12.08,2013-07-23 12:25:00,
2013-07-23 08:26:00,78.0,76.8,29.62,West,259,9.0,10.0,96,0.00,,---,0.00,VWS V12.08,2013-07-23 12:26:00,
2013-07-23 08:28:00,78.3,77.1,29.62,WSW,239,2.0,10.0,96,0.00,,---,0.00,VWS V12.08,2013-07-23 12:28:00,
2013-07-23 08:29:00,78.4,76.8,29.63,WSW,239,2.0,10.0,95,0.00,,---,0.00,VWS V12.08,2013-07-23 12:29:00,
2013-07-23 08:30:00,78.5,76.9,29.62,WSW,245,7.0,10.0,95,0.00,,---,0.00,VWS V12.08,2013-07-23 12:30:00,
2013-07-23 08:31:00,78.5,76.9,29.62,WSW,237,5.0,10.0,95,0.00,,---,0.00,VWS V12.08,2013-07-23 12:31:00,
2013-07-23 08:33:00,78.9,77.3,29.62,SW,220,9.0,11.0,95,0.00,,---,0.00,VWS V12.08,2013-07-23 12:33:00,
2013-07-23 08:34:00,78.9,77.3,29.62,SW,225,7.0,11.0,95,0.00,,---,0.00,VWS V12.08,2013-07-23 12:34:00,
2013-07-23 08:35:00,78.9,77.0,29.62,SW,217,5.0,11.0,94,0.00,,---,0.00,VWS V12.08,2013-07-23 12:35:00,
2013-07-23 08:36:00,78.8,76.9,29.62,SW,220,7.0,11.0,94,0.00,,---,0.00,VWS V12.08,2013-07-23 12:36:00,
2013-07-23 08:39:00,78.7,76.5,29.62,SSW,205,9.0,11.0,93,0.00,,---,0.00,VWS V12.08,2013-07-23 12:39:00,
2013-07-23 08:40:00,78.6,76.4,29.62,SSW,211,6.0,11.0,93,0.00,,---,0.00,VWS V12.08,2013-07-23 12:40:00,
2013-07-23 08:41:00,78.6,76.4,29.62,SSW,212,6.0,11.0,93,0.00,,---,0.00,VWS V12.08,2013-07-23 12:41:00,
2013-07-23 08:44:00,78.7,76.2,29.62,SW,230,9.0,10.0,92,0.00,,---,0.00,VWS V12.08,2013-07-23 12:44:00,
2013-07-23 08:45:00,78.7,76.2,29.62,SSW,213,10.0,10.0,92,0.00,,---,0.00,VWS V12.08,2013-07-23 12:45:00,
2013-07-23 08:46:00,78.7,76.2,29.63,SW,224,7.0,10.0,92,0.00,,---,0.00,VWS V12.08,2013-07-23 12:46:00,
2013-07-23 08:49:00,78.6,75.8,29.62,SSW,208,6.0,11.0,91,0.00,,---,0.00,VWS V12.08,2013-07-23 12:49:00,
2013-07-23 08:50:00,78.6,75.8,29.62,SSW,207,11.0,11.0,91,0.00,,---,0.00,VWS V12.08,2013-07-23 12:50:00,
2013-07-23 08:51:00,78.5,75.7,29.62,SSW,202,7.0,10.0,91,0.00,,---,0.00,VWS V12.08,2013-07-23 12:51:00,
2013-07-23 08:55:00,78.4,75.6,29.62,SSW,208,9.0,12.0,91,0.00,,---,0.00,VWS V12.08,2013-07-23 12:55:00,
2013-07-23 08:56:00,78.4,75.6,29.62,SW,219,5.0,12.0,91,0.00,,---,0.00,VWS V12.08,2013-07-23 12:56:00,
2013-07-23 09:00:00,78.6,75.8,29.62,SW,217,4.0,12.0,91,0.00,,---,0.00,VWS V12.08,2013-07-23 13:00:00,
2013-07-23 09:01:00,78.7,75.9,29.62,SSW,209,9.0,9.0,91,0.00,,---,0.00,VWS V12.08,2013-07-23 13:01:00,
2013-07-23 09:05:00,78.9,75.7,29.62,SSW,205,8.0,11.0,90,0.00,,---,0.00,VWS V12.08,2013-07-23 13:05:00,
2013-07-23 09:06:00,78.9,75.7,29.62,SSW,212,10.0,11.0,90,0.00,,---,0.00,VWS V12.08,2013-07-23 13:06:00,
2013-07-23 09:07:00,78.9,75.7,29.62,SSW,212,10.0,11.0,90,0.00,,---,0.00,VWS V12.08,2013-07-23 13:07:00,
2013-07-23 09:10:00,78.8,75.3,29.62,SSW,211,8.0,11.0,89,0.00,,---,0.00,VWS V12.08,2013-07-23 13:10:00,
2013-07-23 09:11:00,78.7,75.2,29.62,SSW,210,10.0,11.0,89,0.00,,---,0.00,VWS V12.08,2013-07-23 13:11:00,
2013-07-23 09:12:00,78.7,75.2,29.62,SSW,211,7.0,11.0,89,0.00,,---,0.00,VWS V12.08,2013-07-23 13:12:00,
2013-07-23 09:15:00,78.5,75.0,29.62,SSW,198,7.0,11.0,89,0.00,,---,0.00,VWS V12.08,2013-07-23 13:15:00,
2013-07-23 09:16:00,78.4,74.9,29.62,SW,218,11.0,12.0,89,0.00,,---,0.00,VWS V12.08,2013-07-23 13:16:00,
2013-07-23 09:17:00,78.4,74.9,29.62,SW,220,11.0,12.0,89,0.00,,---,0.00,VWS V12.08,2013-07-23 13:17:00,
2013-07-23 09:20:00,78.2,74.7,29.62,SSW,208,11.0,12.0,89,0.00,,---,0.00,VWS V12.08,2013-07-23 13:20:00,
2013-07-23 09:21:00,78.2,74.7,29.62,SW,224,9.0,9.0,89,0.00,,---,0.00,VWS V12.08,2013-07-23 13:21:00,
2013-07-23 09:22:00,78.1,74.6,29.62,SSW,200,5.0,10.0,89,0.00,,---,0.00,VWS V12.08,2013-07-23 13:22:00,
2013-07-23 09:25:00,78.2,74.7,29.62,SSW,207,9.0,11.0,89,0.00,,---,0.00,VWS V12.08,2013-07-23 13:25:00,
2013-07-23 09:26:00,78.2,74.7,29.62,SW,217,10.0,12.0,89,0.00,,---,0.00,VWS V12.08,2013-07-23 13:26:00,
2013-07-23 09:27:00,78.3,74.8,29.62,SW,219,10.0,12.0,89,0.00,,---,0.00,VWS V12.08,2013-07-23 13:27:00,
2013-07-23 09:30:00,78.7,75.2,29.62,SW,214,10.0,12.0,89,0.00,,---,0.00,VWS V12.08,2013-07-23 13:30:00,
2013-07-23 09:31:00,78.7,75.2,29.62,SSW,208,8.0,12.0,89,0.00,,---,0.00,VWS V12.08,2013-07-23 13:31:00,
2013-07-23 09:32:00,78.8,75.3,29.62,SSW,205,12.0,13.0,89,0.00,,---,0.00,VWS V12.08,2013-07-23 13:32:00,
2013-07-23 09:35:00,79.2,75.7,29.62,SSW,209,14.0,15.0,89,0.00,,---,0.00,VWS V12.08,2013-07-23 13:35:00,
2013-07-23 09:36:00,79.2,75.7,29.62,SSW,206,14.0,15.0,89,0.00,,---,0.00,VWS V12.08,2013-07-23 13:36:00,
2013-07-23 09:37:00,79.2,75.7,29.62,SSW,202,11.0,17.0,89,0.00,,---,0.00,VWS V12.08,2013-07-23 13:37:00,
2013-07-23 09:40:00,78.8,74.6,29.62,SSW,209,9.0,17.0,87,0.00,,---,0.00,VWS V12.08,2013-07-23 13:40:00,
2013-07-23 09:41:00,78.7,74.5,29.62,SSW,208,12.0,12.0,87,0.00,,---,0.00,VWS V12.08,2013-07-23 13:41:00,
2013-07-23 09:42:00,78.5,74.3,29.62,SW,214,12.0,16.0,87,0.00,,---,0.00,VWS V12.08,2013-07-23 13:42:00,
2013-07-23 09:46:00,78.1,74.3,29.62,SSW,205,6.0,16.0,88,0.00,,---,0.00,VWS V12.08,2013-07-23 13:46:00,
2013-07-23 09:47:00,78.0,74.2,29.62,SSW,209,11.0,16.0,88,0.00,,---,0.00,VWS V12.08,2013-07-23 13:47:00,
2013-07-23 09:51:00,77.8,74.0,29.62,SSW,213,11.0,11.0,88,0.00,,---,0.00,VWS V12.08,2013-07-23 13:51:00,
2013-07-23 09:52:00,77.7,73.9,29.62,SSW,207,9.0,14.0,88,0.00,,---,0.00,VWS V12.08,2013-07-23 13:52:00,
2013-07-23 09:56:00,77.5,73.7,29.62,SW,216,10.0,14.0,88,0.00,,---,0.00,VWS V12.08,2013-07-23 13:56:00,
2013-07-23 09:57:00,77.6,74.1,29.62,SW,219,10.0,14.0,89,0.00,,---,0.00,VWS V12.08,2013-07-23 13:57:00,
2013-07-23 09:58:00,77.7,74.2,29.62,SSW,213,12.0,14.0,89,0.00,,---,0.00,VWS V12.08,2013-07-23 13:58:00,
2013-07-23 10:01:00,78.0,74.5,29.62,SSW,207,6.0,12.0,89,0.00,,---,0.00,VWS V12.08,2013-07-23 14:01:00,
2013-07-23 10:03:00,78.1,74.6,29.62,SSW,211,13.0,13.0,89,0.00,,---,0.00,VWS V12.08,2013-07-23 14:03:00,
2013-07-23 10:06:00,78.2,74.7,29.62,SSW,210,12.0,15.0,89,0.00,,---,0.00,VWS V12.08,2013-07-23 14:06:00,
2013-07-23 10:07:00,78.2,74.7,29.62,SSW,200,11.0,15.0,89,0.00,,---,0.00,VWS V12.08,2013-07-23 14:07:00,
2013-07-23 10:08:00,78.2,74.7,29.62,SSE,165,9.0,15.0,89,0.00,,---,0.00,VWS V12.08,2013-07-23 14:08:00,
2013-07-23 10:11:00,78.3,74.8,29.62,SSW,211,11.0,13.0,89,0.00,,---,0.00,VWS V12.08,2013-07-23 14:11:00,
2013-07-23 10:12:00,78.3,74.8,29.62,SW,220,11.0,13.0,89,0.00,,---,0.00,VWS V12.08,2013-07-23 14:12:00,
2013-07-23 10:13:00,78.4,74.6,29.62,SW,219,9.0,14.0,88,0.00,,---,0.00,VWS V12.08,2013-07-23 14:13:00,
2013-07-23 10:16:00,78.4,74.6,29.62,SW,215,7.0,14.0,88,0.00,,---,0.00,VWS V12.08,2013-07-23 14:16:00,
2013-07-23 10:17:00,78.4,74.6,29.62,SSW,204,6.0,14.0,88,0.00,,---,0.00,VWS V12.08,2013-07-23 14:17:00,
2013-07-23 10:18:00,78.3,74.1,29.62,SSW,212,9.0,14.0,87,0.00,,---,0.00,VWS V12.08,2013-07-23 14:18:00,
2013-07-23 10:21:00,78.0,73.8,29.62,SSW,205,9.0,13.0,87,0.00,,---,0.00,VWS V12.08,2013-07-23 14:21:00,
2013-07-23 10:22:00,78.0,73.8,29.62,SSW,205,9.0,13.0,87,0.00,,---,0.00,VWS V12.08,2013-07-23 14:22:00,
2013-07-23 10:23:00,77.8,73.6,29.62,SSW,207,12.0,13.0,87,0.00,,---,0.00,VWS V12.08,2013-07-23 14:23:00,
2013-07-23 10:27:00,77.7,73.9,29.62,SSW,213,12.0,15.0,88,0.00,,---,0.00,VWS V12.08,2013-07-23 14:27:00,
2013-07-23 10:28:00,77.8,74.0,29.62,SW,214,5.0,17.0,88,0.00,,---,0.00,VWS V12.08,2013-07-23 14:28:00,
2013-07-23 10:32:00,78.0,74.2,29.62,SSW,209,11.0,14.0,88,0.00,,---,0.00,VWS V12.08,2013-07-23 14:32:00,
2013-07-23 10:33:00,78.1,74.3,29.61,SSW,201,9.0,14.0,88,0.00,,---,0.00,VWS V12.08,2013-07-23 14:33:00,
2013-07-23 10:37:00,78.4,74.6,29.62,SSW,213,7.0,14.0,88,0.00,,---,0.00,VWS V12.08,2013-07-23 14:37:00,
2013-07-23 10:38:00,78.5,74.7,29.62,South,179,11.0,14.0,88,0.00,,---,0.00,VWS V12.08,2013-07-23 14:38:00,
2013-07-23 10:42:00,78.8,74.6,29.62,WSW,241,11.0,12.0,87,0.00,,---,0.00,VWS V12.08,2013-07-23 14:42:00,
2013-07-23 10:43:00,78.8,74.6,29.62,SW,214,7.0,13.0,87,0.00,,---,0.00,VWS V12.08,2013-07-23 14:43:00,
2013-07-23 10:44:00,78.8,74.6,29.62,SSW,207,9.0,13.0,87,0.00,,---,0.00,VWS V12.08,2013-07-23 14:44:00,
2013-07-23 10:47:00,78.8,74.6,29.62,SSW,209,7.0,15.0,87,0.00,,---,0.00,VWS V12.08,2013-07-23 14:47:00,
2013-07-23 10:48:00,78.9,74.7,29.62,SW,215,9.0,15.0,87,0.00,,---,0.00,VWS V12.08,2013-07-23 14:48:00,
2013-07-23 10:49:00,78.9,74.7,29.62,SSW,211,7.0,15.0,87,0.00,,---,0.00,VWS V12.08,2013-07-23 14:49:00,
2013-07-23 10:52:00,79.1,74.6,29.62,SSW,207,9.0,12.0,86,0.00,,---,0.00,VWS V12.08,2013-07-23 14:52:00,
2013-07-23 10:53:00,79.1,74.6,29.61,SW,222,7.0,12.0,86,0.00,,---,0.00,VWS V12.08,2013-07-23 14:53:00,
2013-07-23 10:54:00,79.1,74.6,29.61,SW,232,9.0,12.0,86,0.00,,---,0.00,VWS V12.08,2013-07-23 14:54:00,
2013-07-23 10:57:00,79.3,75.1,29.61,West,273,4.0,12.0,87,0.00,,---,0.00,VWS V12.08,2013-07-23 14:57:00,
2013-07-23 10:58:00,79.7,75.5,29.61,West,271,7.0,12.0,87,0.00,,---,0.00,VWS V12.08,2013-07-23 14:58:00,
2013-07-23 10:59:00,79.9,76.0,29.61,West,279,5.0,12.0,88,0.00,,---,0.00,VWS V12.08,2013-07-23 14:59:00,
2013-07-23 11:02:00,81.2,77.3,29.61,West,276,4.0,12.0,88,0.00,,---,0.00,VWS V12.08,2013-07-23 15:02:00,
2013-07-23 11:03:00,81.6,77.7,29.61,West,264,6.0,13.0,88,0.00,,---,0.00,VWS V12.08,2013-07-23 15:03:00,
2013-07-23 11:04:00,81.9,78.0,29.61,WSW,258,9.0,13.0,88,0.00,,---,0.00,VWS V12.08,2013-07-23 15:04:00,
2013-07-23 11:07:00,82.7,78.1,29.61,West,265,11.0,17.0,86,0.00,,---,0.00,VWS V12.08,2013-07-23 15:07:00,
2013-07-23 11:08:00,82.7,78.1,29.61,WSW,253,10.0,17.0,86,0.00,,---,0.00,VWS V12.08,2013-07-23 15:08:00,
2013-07-23 11:09:00,83.0,78.4,29.62,WSW,258,15.0,17.0,86,0.00,,---,0.00,VWS V12.08,2013-07-23 15:09:00,
2013-07-23 11:12:00,83.5,78.2,29.62,West,270,12.0,15.0,84,0.00,,---,0.00,VWS V12.08,2013-07-23 15:12:00,
2013-07-23 11:13:00,83.6,78.3,29.62,West,259,11.0,15.0,84,0.00,,---,0.00,VWS V12.08,2013-07-23 15:13:00,
2013-07-23 11:14:00,83.8,78.4,29.62,WSW,250,14.0,15.0,84,0.00,,---,0.00,VWS V12.08,2013-07-23 15:14:00,
2013-07-23 11:18:00,84.2,78.5,29.62,West,277,7.0,15.0,83,0.00,,---,0.00,VWS V12.08,2013-07-23 15:18:00,
2013-07-23 11:19:00,84.3,78.6,29.61,WSW,257,8.0,15.0,83,0.00,,---,0.00,VWS V12.08,2013-07-23 15:19:00,
2013-07-23 11:23:00,84.8,78.7,29.61,WSW,257,11.0,14.0,82,0.00,,---,0.00,VWS V12.08,2013-07-23 15:23:00,
2013-07-23 11:24:00,85.0,78.9,29.61,WSW,238,6.0,14.0,82,0.00,,---,0.00,VWS V12.08,2013-07-23 15:24:00,
2013-07-23 11:28:00,85.3,77.7,29.61,SSW,198,6.0,14.0,78,0.00,,---,0.00,VWS V12.08,2013-07-23 15:28:00,
2013-07-23 11:29:00,85.0,77.4,29.61,SSW,206,7.0,14.0,78,0.00,,---,0.00,VWS V12.08,2013-07-23 15:29:00,
2013-07-23 11:33:00,83.8,75.8,29.61,SSW,209,6.0,12.0,77,0.00,,---,0.00,VWS V12.08,2013-07-23 15:33:00,
2013-07-23 11:34:00,83.6,75.6,29.61,SW,221,10.0,12.0,77,0.00,,---,0.00,VWS V12.08,2013-07-23 15:34:00,
2013-07-23 11:35:00,83.2,75.2,29.61,SW,234,6.0,12.0,77,0.00,,---,0.00,VWS V12.08,2013-07-23 15:35:00,
2013-07-23 11:38:00,82.0,74.5,29.61,SSW,198,7.0,12.0,78,0.00,,---,0.00,VWS V12.08,2013-07-23 15:38:00,
2013-07-23 11:39:00,81.7,74.6,29.61,SW,229,7.0,12.0,79,0.00,,---,0.00,VWS V12.08,2013-07-23 15:39:00,
2013-07-23 11:40:00,81.6,74.5,29.61,SSW,206,10.0,12.0,79,0.00,,---,0.00,VWS V12.08,2013-07-23 15:40:00,
2013-07-23 11:43:00,81.2,74.8,29.61,SSW,207,6.0,12.0,81,0.00,,---,0.00,VWS V12.08,2013-07-23 15:43:00,
2013-07-23 11:44:00,81.2,74.8,29.61,SSW,207,9.0,12.0,81,0.00,,---,0.00,VWS V12.08,2013-07-23 15:44:00,
2013-07-23 11:45:00,81.2,74.8,29.61,SSW,199,9.0,12.0,81,0.00,,---,0.00,VWS V12.08,2013-07-23 15:45:00,
2013-07-23 11:48:00,81.1,75.1,29.61,SSW,208,7.0,12.0,82,0.00,,---,0.00,VWS V12.08,2013-07-23 15:48:00,
2013-07-23 11:49:00,81.1,75.1,29.61,SSW,211,12.0,12.0,82,0.00,,---,0.00,VWS V12.08,2013-07-23 15:49:00,
2013-07-23 11:50:00,81.2,75.2,29.61,SSW,213,9.0,12.0,82,0.00,,---,0.00,VWS V12.08,2013-07-23 15:50:00,
2013-07-23 11:53:00,81.2,74.8,29.61,SSW,205,9.0,13.0,81,0.00,,---,0.00,VWS V12.08,2013-07-23 15:53:00,
2013-07-23 11:54:00,81.2,74.8,29.61,South,188,12.0,13.0,81,0.00,,---,0.00,VWS V12.08,2013-07-23 15:54:00,
2013-07-23 11:55:00,81.1,74.7,29.61,SSW,194,14.0,14.0,81,0.00,,---,0.00,VWS V12.08,2013-07-23 15:55:00,
2013-07-23 11:59:00,80.8,74.4,29.61,SSW,208,11.0,16.0,81,0.00,,---,0.00,VWS V12.08,2013-07-23 15:59:00,
2013-07-23 12:00:00,80.7,74.3,29.61,SSW,199,7.0,16.0,81,0.00,,---,0.00,VWS V12.08,2013-07-23 16:00:00,
2013-07-23 12:04:00,80.5,74.5,29.61,SW,217,9.0,14.0,82,0.00,,---,0.00,VWS V12.08,2013-07-23 16:04:00,
2013-07-23 12:05:00,80.6,74.6,29.61,SSW,196,9.0,14.0,82,0.00,,---,0.00,VWS V12.08,2013-07-23 16:05:00,
2013-07-23 12:09:00,80.5,74.5,29.61,SSW,202,10.0,14.0,82,0.00,,---,0.00,VWS V12.08,2013-07-23 16:09:00,
2013-07-23 12:10:00,80.6,74.6,29.61,SSW,198,11.0,14.0,82,0.00,,---,0.00,VWS V12.08,2013-07-23 16:10:00,
2013-07-23 12:14:00,80.7,74.7,29.61,SSW,196,11.0,13.0,82,0.00,,---,0.00,VWS V12.08,2013-07-23 16:14:00,
2013-07-23 12:15:00,80.8,74.8,29.61,SSW,206,12.0,13.0,82,0.00,,---,0.00,VWS V12.08,2013-07-23 16:15:00,
2013-07-23 12:19:00,80.7,74.7,29.61,SSW,196,12.0,13.0,82,0.00,,---,0.00,VWS V12.08,2013-07-23 16:19:00,
2013-07-23 12:20:00,80.6,74.6,29.61,South,182,11.0,13.0,82,0.00,,---,0.00,VWS V12.08,2013-07-23 16:20:00,
2013-07-23 12:21:00,80.6,74.6,29.61,South,190,9.0,9.0,82,0.00,,---,0.00,VWS V12.08,2013-07-23 16:21:00,
2013-07-23 12:24:00,80.6,74.6,29.61,South,188,10.0,14.0,82,0.00,,---,0.00,VWS V12.08,2013-07-23 16:24:00,
2013-07-23 12:25:00,80.6,74.6,29.61,SSW,205,7.0,14.0,82,0.00,,---,0.00,VWS V12.08,2013-07-23 16:25:00,
2013-07-23 12:26:00,80.6,74.6,29.61,SSW,202,6.0,14.0,82,0.00,,---,0.00,VWS V12.08,2013-07-23 16:26:00,
2013-07-23 12:29:00,80.7,74.7,29.61,SSW,201,8.0,14.0,82,0.00,,---,0.00,VWS V12.08,2013-07-23 16:29:00,
2013-07-23 12:30:00,80.7,74.7,29.61,SSW,200,7.0,14.0,82,0.00,,---,0.00,VWS V12.08,2013-07-23 16:30:00,
2013-07-23 12:31:00,80.8,74.8,29.61,SSW,198,9.0,10.0,82,0.00,,---,0.00,VWS V12.08,2013-07-23 16:31:00,
2013-07-23 12:34:00,80.7,74.7,29.60,SSW,198,13.0,13.0,82,0.00,,---,0.00,VWS V12.08,2013-07-23 16:34:00,
2013-07-23 12:35:00,80.7,74.3,29.60,SSW,202,5.0,13.0,81,0.00,,---,0.00,VWS V12.08,2013-07-23 16:35:00,
2013-07-23 12:36:00,80.5,74.1,29.60,SSW,200,9.0,13.0,81,0.00,,---,0.00,VWS V12.08,2013-07-23 16:36:00,
2013-07-23 12:39:00,80.1,74.1,29.60,SSW,210,12.0,13.0,82,0.00,,---,0.00,VWS V12.08,2013-07-23 16:39:00,
2013-07-23 12:40:00,80.0,74.0,29.60,SSW,209,10.0,13.0,82,0.00,,---,0.00,VWS V12.08,2013-07-23 16:40:00,
2013-07-23 12:41:00,80.0,74.0,29.60,SSW,204,9.0,12.0,82,0.00,,---,0.00,VWS V12.08,2013-07-23 16:41:00,
2013-07-23 12:45:00,79.9,74.3,29.60,SSW,198,10.0,15.0,83,0.00,,---,0.00,VWS V12.08,2013-07-23 16:45:00,
2013-07-23 12:46:00,79.9,74.3,29.60,SSW,211,10.0,15.0,83,0.00,,---,0.00,VWS V12.08,2013-07-23 16:46:00,
2013-07-23 12:47:00,79.8,73.8,29.60,SSW,201,10.0,15.0,82,0.00,,---,0.00,VWS V12.08,2013-07-23 16:47:00,
2013-07-23 12:50:00,79.6,74.0,29.60,SSW,198,10.0,15.0,83,0.00,,---,0.00,VWS V12.08,2013-07-23 16:50:00,
2013-07-23 12:51:00,79.4,73.8,29.60,SSW,194,12.0,12.0,83,0.00,,---,0.00,VWS V12.08,2013-07-23 16:51:00,
2013-07-23 12:52:00,79.3,73.7,29.60,SSW,200,8.0,12.0,83,0.00,,---,0.00,VWS V12.08,2013-07-23 16:52:00,
2013-07-23 12:55:00,79.1,73.5,29.60,SSW,200,11.0,12.0,83,0.00,,---,0.00,VWS V12.08,2013-07-23 16:55:00,
2013-07-23 12:56:00,78.9,73.3,29.60,SSW,194,11.0,14.0,83,0.00,,---,0.00,VWS V12.08,2013-07-23 16:56:00,
2013-07-23 12:57:00,78.7,73.1,29.60,South,181,13.0,15.0,83,0.00,,---,0.00,VWS V12.08,2013-07-23 16:57:00,
2013-07-23 13:00:00,78.4,72.8,29.60,South,189,12.0,15.0,83,0.00,,---,0.00,VWS V12.08,2013-07-23 17:00:00,
2013-07-23 13:01:00,78.2,73.0,29.60,SSW,193,13.0,13.0,84,0.00,,---,0.00,VWS V12.08,2013-07-23 17:01:00,
2013-07-23 13:02:00,78.1,72.9,29.60,SSW,202,7.0,13.0,84,0.00,,---,0.00,VWS V12.08,2013-07-23 17:02:00,
2013-07-23 13:05:00,78.5,74.0,29.60,SSW,194,9.0,13.0,86,0.00,,---,0.00,VWS V12.08,2013-07-23 17:05:00,
2013-07-23 13:06:00,78.8,74.3,29.60,South,187,13.0,14.0,86,0.00,,---,0.00,VWS V12.08,2013-07-23 17:06:00,
2013-07-23 13:07:00,78.8,74.3,29.60,South,191,14.0,14.0,86,0.00,,---,0.00,VWS V12.08,2013-07-23 17:07:00,
2013-07-23 13:10:00,78.9,74.0,29.60,South,183,13.0,15.0,85,0.00,,---,0.00,VWS V12.08,2013-07-23 17:10:00,
2013-07-23 13:11:00,78.9,74.0,29.60,South,185,12.0,15.0,85,0.00,,---,0.00,VWS V12.08,2013-07-23 17:11:00,
2013-07-23 13:12:00,78.9,74.0,29.60,South,188,12.0,15.0,85,0.00,,---,0.00,VWS V12.08,2013-07-23 17:12:00,
2013-07-23 13:15:00,78.8,73.6,29.60,South,188,13.0,15.0,84,0.00,,---,0.00,VWS V12.08,2013-07-23 17:15:00,
2013-07-23 13:16:00,78.8,73.6,29.60,South,188,12.0,15.0,84,0.00,,---,0.00,VWS V12.08,2013-07-23 17:16:00,
2013-07-23 13:17:00,78.7,73.5,29.60,SSW,200,10.0,15.0,84,0.00,,---,0.00,VWS V12.08,2013-07-23 17:17:00,
2013-07-23 13:21:00,78.4,73.2,29.60,SSW,196,6.0,15.0,84,0.00,,---,0.00,VWS V12.08,2013-07-23 17:21:00,
2013-07-23 13:22:00,78.3,73.4,29.60,SSW,195,6.0,9.0,85,0.00,,---,0.00,VWS V12.08,2013-07-23 17:22:00,
2013-07-23 13:26:00,77.9,73.0,29.60,SSW,198,6.0,10.0,85,0.00,,---,0.00,VWS V12.08,2013-07-23 17:26:00,
2013-07-23 13:27:00,77.8,72.9,29.60,SSW,210,9.0,10.0,85,0.00,,---,0.00,VWS V12.08,2013-07-23 17:27:00,
2013-07-23 13:31:00,77.8,73.3,29.61,NW,304,5.0,11.0,86,0.05,,---,0.05,VWS V12.08,2013-07-23 17:31:00,
2013-07-23 13:32:00,77.8,73.6,29.61,NW,312,10.0,11.0,87,0.05,,---,0.05,VWS V12.08,2013-07-23 17:32:00,
2013-07-23 13:36:00,78.2,74.4,29.60,NW,304,4.0,11.0,88,0.09,,---,0.09,VWS V12.08,2013-07-23 17:36:00,
2013-07-23 13:37:00,78.3,74.5,29.60,NW,304,0.0,11.0,88,0.09,,---,0.09,VWS V12.08,2013-07-23 17:37:00,
2013-07-23 13:38:00,78.3,74.5,29.60,NW,304,5.0,11.0,88,0.09,,---,0.09,VWS V12.08,2013-07-23 17:38:00,
2013-07-23 13:41:00,78.4,74.6,29.60,WSW,253,3.0,5.0,88,0.09,,---,0.09,VWS V12.08,2013-07-23 17:41:00,
2013-07-23 13:42:00,78.4,74.6,29.60,WSW,253,4.0,5.0,88,0.09,,---,0.09,VWS V12.08,2013-07-23 17:42:00,
2013-07-23 13:43:00,78.4,74.9,29.60,WSW,253,2.0,5.0,89,0.09,,---,0.09,VWS V12.08,2013-07-23 17:43:00,
2013-07-23 13:47:00,79.1,75.9,29.60,SSW,198,5.0,11.0,90,0.09,,---,0.09,VWS V12.08,2013-07-23 17:47:00,
2013-07-23 13:48:00,79.1,75.9,29.60,SSW,210,7.0,11.0,90,0.09,,---,0.09,VWS V12.08,2013-07-23 17:48:00,
2013-07-23 13:52:00,79.7,76.8,29.60,SSW,212,9.0,9.0,91,0.09,,---,0.09,VWS V12.08,2013-07-23 17:52:00,
2013-07-23 13:53:00,79.7,76.8,29.60,SSW,210,6.0,10.0,91,0.09,,---,0.09,VWS V12.08,2013-07-23 17:53:00,
2013-07-23 13:57:00,80.2,77.3,29.59,SSW,211,6.0,10.0,91,0.09,,---,0.09,VWS V12.08,2013-07-23 17:57:00,
2013-07-23 13:58:00,80.2,77.3,29.59,SSW,198,6.0,10.0,91,0.09,,---,0.09,VWS V12.08,2013-07-23 17:58:00,
2013-07-23 13:59:00,80.2,77.3,29.59,SSW,198,9.0,10.0,91,0.09,,---,0.09,VWS V12.08,2013-07-23 17:59:00,
2013-07-23 14:03:00,79.3,76.1,29.59,South,190,6.0,13.0,90,0.09,,---,0.09,VWS V12.08,2013-07-23 18:03:00,
2013-07-23 14:04:00,79.3,76.1,29.59,SSW,209,8.0,13.0,90,0.09,,---,0.09,VWS V12.08,2013-07-23 18:04:00,
2013-07-23 14:05:00,79.1,75.6,29.59,SSW,209,9.0,13.0,89,0.09,,---,0.09,VWS V12.08,2013-07-23 18:05:00,
2013-07-23 14:08:00,78.7,75.5,29.59,SSW,198,9.0,13.0,90,0.09,,---,0.09,VWS V12.08,2013-07-23 18:08:00,
2013-07-23 14:09:00,78.7,75.5,29.59,SSW,198,8.0,13.0,90,0.09,,---,0.09,VWS V12.08,2013-07-23 18:09:00,
2013-07-23 14:10:00,78.7,75.5,29.59,SSW,196,5.0,13.0,90,0.09,,---,0.09,VWS V12.08,2013-07-23 18:10:00,
2013-07-23 14:14:00,78.5,75.3,29.59,South,186,14.0,15.0,90,0.09,,---,0.09,VWS V12.08,2013-07-23 18:14:00,
2013-07-23 14:17:00,78.2,75.0,29.59,South,189,9.0,15.0,90,0.09,,---,0.09,VWS V12.08,2013-07-23 18:17:00,
2013-07-23 14:19:00,78.1,74.9,29.59,SSW,192,9.0,15.0,90,0.09,,---,0.09,VWS V12.08,2013-07-23 18:19:00,
2013-07-23 14:20:00,78.1,74.9,29.59,South,190,10.0,15.0,90,0.09,,---,0.09,VWS V12.08,2013-07-23 18:20:00,
2013-07-23 14:22:00,78.0,74.8,29.59,SSW,192,8.0,11.0,90,0.09,,---,0.09,VWS V12.08,2013-07-23 18:22:00,
2013-07-23 14:24:00,77.8,74.6,29.59,SSW,200,5.0,13.0,90,0.09,,---,0.09,VWS V12.08,2013-07-23 18:24:00,
2013-07-23 14:25:00,77.8,74.6,29.59,SSW,200,6.0,13.0,90,0.09,,---,0.09,VWS V12.08,2013-07-23 18:25:00,
2013-07-23 14:28:00,77.9,74.7,29.59,SSW,203,7.0,13.0,90,0.09,,---,0.09,VWS V12.08,2013-07-23 18:28:00,
2013-07-23 14:30:00,78.0,74.8,29.59,SSW,203,12.0,13.0,90,0.09,,---,0.09,VWS V12.08,2013-07-23 18:30:00,
2013-07-23 14:31:00,78.0,74.8,29.59,SSW,200,7.0,10.0,90,0.09,,---,0.09,VWS V12.08,2013-07-23 18:31:00,
2013-07-23 14:33:00,77.9,74.7,29.59,SSW,211,9.0,10.0,90,0.04,,---,0.09,VWS V12.08,2013-07-23 18:33:00,
2013-07-23 14:35:00,77.9,74.7,29.59,SSW,195,6.0,11.0,90,0.04,,---,0.09,VWS V12.08,2013-07-23 18:35:00,
2013-07-23 14:36:00,78.2,75.4,29.59,SSW,212,7.0,12.0,91,0.04,,---,0.09,VWS V12.08,2013-07-23 18:36:00,
2013-07-23 14:37:00,78.4,75.6,29.59,SW,227,5.0,12.0,91,0.04,,---,0.09,VWS V12.08,2013-07-23 18:37:00,
2013-07-23 14:38:00,78.7,75.9,29.59,WSW,254,10.0,12.0,91,0.04,,---,0.09,VWS V12.08,2013-07-23 18:38:00,
2013-07-23 14:40:00,79.1,76.2,29.59,West,259,10.0,16.0,91,0.04,,---,0.09,VWS V12.08,2013-07-23 18:40:00,
2013-07-23 14:42:00,79.4,76.6,29.59,West,278,9.0,14.0,91,0.00,,---,0.09,VWS V12.08,2013-07-23 18:42:00,
2013-07-23 14:43:00,79.7,76.8,29.59,West,265,17.0,17.0,91,0.00,,---,0.09,VWS V12.08,2013-07-23 18:43:00,
2013-07-23 14:46:00,80.3,77.1,29.59,West,267,9.0,17.0,90,0.00,,---,0.09,VWS V12.08,2013-07-23 18:46:00,
2013-07-23 14:47:00,80.3,77.1,29.59,WSW,256,6.0,17.0,90,0.00,,---,0.09,VWS V12.08,2013-07-23 18:47:00,
2013-07-23 14:48:00,80.4,76.9,29.59,WSW,248,5.0,17.0,89,0.00,,---,0.09,VWS V12.08,2013-07-23 18:48:00,
2013-07-23 14:52:00,80.7,76.8,29.59,West,261,15.0,17.0,88,0.00,,---,0.09,VWS V12.08,2013-07-23 18:52:00,
2013-07-23 14:53:00,80.8,76.6,29.59,West,261,9.0,17.0,87,0.00,,---,0.09,VWS V12.08,2013-07-23 18:53:00,
2013-07-23 14:55:00,80.8,76.2,29.59,West,280,6.0,17.0,86,0.00,,---,0.09,VWS V12.08,2013-07-23 18:55:00,
2013-07-23 14:58:00,80.8,76.2,29.59,West,281,10.0,17.0,86,0.00,,---,0.09,VWS V12.08,2013-07-23 18:58:00,
2013-07-23 15:00:00,80.8,75.9,29.59,WSW,256,13.0,17.0,85,0.00,,---,0.09,VWS V12.08,2013-07-23 19:00:00,
2013-07-23 15:03:00,81.1,76.2,29.59,WNW,295,15.0,15.0,85,0.00,,---,0.09,VWS V12.08,2013-07-23 19:03:00,
2013-07-23 15:04:00,81.2,76.6,29.58,West,266,7.0,15.0,86,0.00,,---,0.09,VWS V12.08,2013-07-23 19:04:00,
2013-07-23 15:05:00,81.4,76.8,29.58,West,265,7.0,15.0,86,0.00,,---,0.09,VWS V12.08,2013-07-23 19:05:00,
2013-07-23 15:08:00,82.4,77.8,29.58,WSW,257,12.0,16.0,86,0.00,,---,0.09,VWS V12.08,2013-07-23 19:08:00,
2013-07-23 15:09:00,82.5,77.9,29.58,WSW,243,4.0,16.0,86,0.00,,---,0.09,VWS V12.08,2013-07-23 19:09:00,
2013-07-23 15:11:00,82.8,77.8,29.58,WSW,256,9.0,9.0,85,0.00,,---,0.09,VWS V12.08,2013-07-23 19:11:00,
2013-07-23 15:14:00,82.9,77.2,29.58,SW,224,11.0,17.0,83,0.00,,---,0.09,VWS V12.08,2013-07-23 19:14:00,
2013-07-23 15:18:00,82.5,76.1,29.58,WSW,253,13.0,18.0,81,0.00,,---,0.09,VWS V12.08,2013-07-23 19:18:00,
2013-07-23 15:19:00,82.4,76.0,29.58,SW,228,5.0,18.0,81,0.00,,---,0.09,VWS V12.08,2013-07-23 19:19:00,
2013-07-23 15:20:00,82.3,75.9,29.58,WSW,240,6.0,18.0,81,0.00,,---,0.09,VWS V12.08,2013-07-23 19:20:00,
2013-07-23 15:24:00,82.7,76.7,29.58,West,275,4.0,16.0,82,0.00,,---,0.09,VWS V12.08,2013-07-23 19:24:00,
2013-07-23 15:25:00,83.0,76.9,29.57,WSW,248,10.0,16.0,82,0.00,,---,0.09,VWS V12.08,2013-07-23 19:25:00,
2013-07-23 15:26:00,83.0,76.9,29.57,SW,234,9.0,16.0,82,0.00,,---,0.09,VWS V12.08,2013-07-23 19:26:00,
2013-07-23 15:29:00,83.8,77.7,29.57,WSW,250,5.0,16.0,82,0.00,,---,0.09,VWS V12.08,2013-07-23 19:29:00,
2013-07-23 15:30:00,84.1,78.0,29.57,West,259,10.0,16.0,82,0.00,,---,0.09,VWS V12.08,2013-07-23 19:30:00,
2013-07-23 15:31:00,84.1,78.0,29.57,WSW,250,9.0,11.0,82,0.00,,---,0.09,VWS V12.08,2013-07-23 19:31:00,
2013-07-23 15:36:00,85.1,78.2,29.57,SW,231,13.0,13.0,80,0.00,,---,0.09,VWS V12.08,2013-07-23 19:36:00,
2013-07-23 15:37:00,85.3,78.1,29.57,WNW,298,3.0,13.0,79,0.00,,---,0.09,VWS V12.08,2013-07-23 19:37:00,
2013-07-23 15:41:00,86.0,78.3,29.57,WSW,248,15.0,18.0,78,0.00,,---,0.09,VWS V12.08,2013-07-23 19:41:00,
2013-07-23 15:42:00,86.1,78.4,29.57,SW,229,9.0,13.0,78,0.00,,---,0.09,VWS V12.08,2013-07-23 19:42:00,
2013-07-23 15:46:00,86.3,77.8,29.57,SW,228,11.0,19.0,76,0.00,,---,0.09,VWS V12.08,2013-07-23 19:46:00,
2013-07-23 15:47:00,86.4,77.9,29.57,West,262,13.0,19.0,76,0.00,,---,0.09,VWS V12.08,2013-07-23 19:47:00,
2013-07-23 15:52:00,86.3,77.4,29.57,SW,234,10.0,14.0,75,0.00,,---,0.09,VWS V12.08,2013-07-23 19:52:00,
2013-07-23 15:58:00,86.4,77.1,29.57,SW,223,6.0,14.0,74,0.00,,---,0.09,VWS V12.08,2013-07-23 19:58:00,
2013-07-23 15:59:00,86.4,77.5,29.57,WNW,287,10.0,14.0,75,0.00,,---,0.09,VWS V12.08,2013-07-23 19:59:00,
2013-07-23 16:03:00,86.5,77.2,29.57,West,269,13.0,17.0,74,0.00,,---,0.09,VWS V12.08,2013-07-23 20:03:00,
2013-07-23 16:04:00,86.5,77.2,29.57,WSW,246,8.0,17.0,74,0.00,,---,0.09,VWS V12.08,2013-07-23 20:04:00,
2013-07-23 16:08:00,86.6,77.7,29.56,West,272,3.0,17.0,75,0.00,,---,0.09,VWS V12.08,2013-07-23 20:08:00,
2013-07-23 16:09:00,86.6,77.7,29.56,WSW,250,12.0,17.0,75,0.00,,---,0.09,VWS V12.08,2013-07-23 20:09:00,
2013-07-23 16:10:00,86.7,77.8,29.56,West,259,8.0,17.0,75,0.00,,---,0.09,VWS V12.08,2013-07-23 20:10:00,
2013-07-23 16:14:00,86.8,77.9,29.56,WNW,300,9.0,12.0,75,0.00,,---,0.09,VWS V12.08,2013-07-23 20:14:00,
2013-07-23 16:15:00,86.9,78.0,29.56,West,281,5.0,12.0,75,0.00,,---,0.09,VWS V12.08,2013-07-23 20:15:00,
2013-07-23 16:19:00,87.0,77.7,29.56,West,265,3.0,14.0,74,0.00,,---,0.09,VWS V12.08,2013-07-23 20:19:00,
2013-07-23 16:20:00,87.0,77.7,29.56,West,277,11.0,14.0,74,0.00,,---,0.09,VWS V12.08,2013-07-23 20:20:00,
2013-07-23 16:24:00,86.9,77.2,29.56,West,262,12.0,16.0,73,0.00,,---,0.09,VWS V12.08,2013-07-23 20:24:00,
2013-07-23 16:26:00,86.9,76.8,29.56,WSW,242,6.0,16.0,72,0.00,,---,0.09,VWS V12.08,2013-07-23 20:26:00,
2013-07-23 16:27:00,86.9,76.8,29.56,West,271,10.0,16.0,72,0.00,,---,0.09,VWS V12.08,2013-07-23 20:27:00,
2013-07-23 16:29:00,86.9,76.4,29.56,WSW,248,10.0,18.0,71,0.00,,---,0.09,VWS V12.08,2013-07-23 20:29:00,
2013-07-23 16:30:00,86.9,76.4,29.56,WNW,286,6.0,18.0,71,0.00,,---,0.09,VWS V12.08,2013-07-23 20:30:00,
2013-07-23 16:31:00,86.9,76.4,29.56,West,267,12.0,13.0,71,0.00,,---,0.09,VWS V12.08,2013-07-23 20:31:00,
2013-07-23 16:33:00,87.0,76.5,29.56,WSW,251,7.0,20.0,71,0.00,,---,0.09,VWS V12.08,2013-07-23 20:33:00,
2013-07-23 16:34:00,87.0,76.5,29.56,SW,219,9.0,20.0,71,0.00,,---,0.09,VWS V12.08,2013-07-23 20:34:00,
2013-07-23 16:35:00,87.0,76.5,29.56,WSW,244,10.0,20.0,71,0.00,,---,0.09,VWS V12.08,2013-07-23 20:35:00,
2013-07-23 16:36:00,87.0,76.5,29.56,WSW,250,3.0,20.0,71,0.00,,---,0.09,VWS V12.08,2013-07-23 20:36:00,
2013-07-23 16:39:00,85.8,74.9,29.56,SW,234,11.0,20.0,70,0.00,,---,0.09,VWS V12.08,2013-07-23 20:39:00,
2013-07-23 16:40:00,85.1,74.2,29.56,SW,215,11.0,20.0,70,0.00,,---,0.09,VWS V12.08,2013-07-23 20:40:00,
2013-07-23 16:42:00,84.0,73.6,29.56,SW,219,4.0,12.0,71,0.00,,---,0.09,VWS V12.08,2013-07-23 20:42:00,
2013-07-23 16:44:00,82.5,73.4,29.56,SSW,205,9.0,14.0,74,0.00,,---,0.09,VWS V12.08,2013-07-23 20:44:00,
2013-07-23 16:45:00,82.3,73.6,29.56,SSW,194,11.0,14.0,75,0.00,,---,0.09,VWS V12.08,2013-07-23 20:45:00,
2013-07-23 16:47:00,81.8,73.5,29.56,SSW,195,15.0,15.0,76,0.00,,---,0.09,VWS V12.08,2013-07-23 20:47:00,
2013-07-23 16:49:00,81.2,73.3,29.56,SSW,213,12.0,16.0,77,0.00,,---,0.09,VWS V12.08,2013-07-23 20:49:00,
2013-07-23 16:50:00,80.9,73.4,29.56,SSW,213,11.0,16.0,78,0.00,,---,0.09,VWS V12.08,2013-07-23 20:50:00,
2013-07-23 16:51:00,80.9,73.4,29.56,SSW,196,13.0,14.0,78,0.00,,---,0.09,VWS V12.08,2013-07-23 20:51:00,
2013-07-23 16:53:00,80.6,73.5,29.56,SW,228,11.0,15.0,79,0.00,,---,0.09,VWS V12.08,2013-07-23 20:53:00,
2013-07-23 16:55:00,80.3,73.2,29.56,SSW,200,10.0,15.0,79,0.00,,---,0.09,VWS V12.08,2013-07-23 20:55:00,
2013-07-23 16:56:00,80.2,73.5,29.56,SSW,210,12.0,15.0,80,0.00,,---,0.09,VWS V12.08,2013-07-23 20:56:00,
2013-07-23 16:59:00,79.7,73.0,29.56,SSW,209,5.0,15.0,80,0.00,,---,0.09,VWS V12.08,2013-07-23 20:59:00,
2013-07-23 17:00:00,79.6,72.9,29.56,SW,216,3.0,15.0,80,0.00,,---,0.09,VWS V12.08,2013-07-23 21:00:00,
2013-07-23 17:01:00,79.5,72.8,29.56,SW,227,7.0,15.0,80,0.00,,---,0.09,VWS V12.08,2013-07-23 21:01:00,
2013-07-23 17:02:00,79.4,72.7,29.56,SSW,207,6.0,7.0,80,0.00,,---,0.09,VWS V12.08,2013-07-23 21:02:00,
2013-07-23 17:04:00,79.1,72.8,29.56,SSW,196,10.0,12.0,81,0.00,,---,0.09,VWS V12.08,2013-07-23 21:04:00,
2013-07-23 17:05:00,78.9,72.6,29.56,SW,224,10.0,14.0,81,0.00,,---,0.09,VWS V12.08,2013-07-23 21:05:00,
2013-07-23 17:06:00,78.9,72.6,29.56,SW,224,10.0,14.0,81,0.00,,---,0.09,VWS V12.08,2013-07-23 21:06:00,
2013-07-23 17:07:00,78.8,72.8,29.56,SSW,210,7.0,14.0,82,0.00,,---,0.09,VWS V12.08,2013-07-23 21:07:00,
2013-07-23 17:09:00,78.9,72.9,29.56,SW,217,7.0,14.0,82,0.00,,---,0.09,VWS V12.08,2013-07-23 21:09:00,
2013-07-23 17:10:00,79.0,73.4,29.56,West,273,5.0,14.0,83,0.00,,---,0.09,VWS V12.08,2013-07-23 21:10:00,
2013-07-23 17:11:00,79.1,73.5,29.56,West,272,13.0,13.0,83,0.00,,---,0.09,VWS V12.08,2013-07-23 21:11:00,
2013-07-23 17:12:00,79.3,73.7,29.56,West,269,3.0,14.0,83,0.00,,---,0.09,VWS V12.08,2013-07-23 21:12:00,
2013-07-23 17:15:00,80.0,75.1,29.56,WSW,256,12.0,14.0,85,0.00,,---,0.09,VWS V12.08,2013-07-23 21:15:00,
2013-07-23 17:16:00,80.4,75.5,29.56,WNW,291,4.0,14.0,85,0.00,,---,0.09,VWS V12.08,2013-07-23 21:16:00,
2013-07-23 17:18:00,81.4,76.8,29.56,West,261,2.0,14.0,86,0.01,,---,0.11,VWS V12.08,2013-07-23 21:18:00,
2013-07-23 17:21:00,82.1,77.2,29.56,West,274,6.0,14.0,85,0.02,,---,0.11,VWS V12.08,2013-07-23 21:21:00,
2013-07-23 17:22:00,82.2,76.9,29.56,West,269,3.0,8.0,84,0.02,,---,0.11,VWS V12.08,2013-07-23 21:22:00,
2013-07-23 17:24:00,82.4,77.1,29.56,West,269,7.0,11.0,84,0.02,,---,0.11,VWS V12.08,2013-07-23 21:24:00,
2013-07-23 17:26:00,82.6,77.3,29.56,NW,317,11.0,13.0,84,0.02,,---,0.11,VWS V12.08,2013-07-23 21:26:00,
2013-07-23 17:27:00,82.7,77.4,29.56,WNW,296,14.0,15.0,84,0.02,,---,0.11,VWS V12.08,2013-07-23 21:27:00,
2013-07-23 17:30:00,82.7,76.7,29.55,West,281,15.0,17.0,82,0.02,,---,0.11,VWS V12.08,2013-07-23 21:30:00,
2013-07-23 17:31:00,82.6,76.6,29.55,WNW,303,13.0,13.0,82,0.02,,---,0.11,VWS V12.08,2013-07-23 21:31:00,
2013-07-23 17:32:00,82.7,76.3,29.55,NW,310,14.0,16.0,81,0.02,,---,0.11,VWS V12.08,2013-07-23 21:32:00,
2013-07-23 17:33:00,82.7,76.3,29.55,NW,313,14.0,16.0,81,0.02,,---,0.11,VWS V12.08,2013-07-23 21:33:00,
2013-07-23 17:35:00,82.8,76.4,29.55,WNW,292,12.0,16.0,81,0.02,,---,0.11,VWS V12.08,2013-07-23 21:35:00,
2013-07-23 17:36:00,82.9,76.5,29.55,NW,304,10.0,16.0,81,0.02,,---,0.11,VWS V12.08,2013-07-23 21:36:00,
2013-07-23 17:38:00,83.0,76.6,29.55,WNW,285,13.0,16.0,81,0.02,,---,0.11,VWS V12.08,2013-07-23 21:38:00,
2013-07-23 17:39:00,83.0,76.2,29.55,NW,307,10.0,18.0,80,0.02,,---,0.11,VWS V12.08,2013-07-23 21:39:00,
2013-07-23 17:40:00,83.0,76.2,29.56,West,280,6.0,18.0,80,0.02,,---,0.11,VWS V12.08,2013-07-23 21:40:00,
2013-07-23 17:42:00,83.1,75.9,29.56,WNW,287,10.0,15.0,79,0.02,,---,0.11,VWS V12.08,2013-07-23 21:42:00,
2013-07-23 17:43:00,83.1,75.9,29.56,WNW,298,4.0,15.0,79,0.02,,---,0.11,VWS V12.08,2013-07-23 21:43:00,
2013-07-23 17:45:00,83.2,76.0,29.55,WNW,292,6.0,16.0,79,0.02,,---,0.11,VWS V12.08,2013-07-23 21:45:00,
2013-07-23 17:49:00,83.4,76.2,29.55,West,279,7.0,16.0,79,0.02,,---,0.11,VWS V12.08,2013-07-23 21:49:00,
2013-07-23 17:50:00,83.4,76.2,29.55,West,271,9.0,16.0,79,0.02,,---,0.11,VWS V12.08,2013-07-23 21:50:00,
2013-07-23 17:54:00,83.7,76.5,29.55,WNW,298,11.0,16.0,79,0.02,,---,0.11,VWS V12.08,2013-07-23 21:54:00,
2013-07-23 17:55:00,83.7,76.5,29.55,NW,322,10.0,16.0,79,0.02,,---,0.11,VWS V12.08,2013-07-23 21:55:00,
2013-07-23 17:59:00,83.8,76.2,29.55,West,272,9.0,16.0,78,0.02,,---,0.11,VWS V12.08,2013-07-23 21:59:00,
2013-07-23 18:00:00,83.9,76.3,29.55,West,277,7.0,19.0,78,0.02,,---,0.11,VWS V12.08,2013-07-23 22:00:00,
2013-07-23 18:01:00,83.8,75.8,29.55,West,275,12.0,12.0,77,0.02,,---,0.11,VWS V12.08,2013-07-23 22:01:00,
2013-07-23 18:05:00,83.9,75.9,29.55,West,273,12.0,17.0,77,0.02,,---,0.11,VWS V12.08,2013-07-23 22:05:00,
2013-07-23 18:06:00,83.9,75.5,29.55,WNW,282,11.0,17.0,76,0.02,,---,0.11,VWS V12.08,2013-07-23 22:06:00,
2013-07-23 18:11:00,83.9,75.5,29.55,WNW,302,15.0,17.0,76,0.02,,---,0.11,VWS V12.08,2013-07-23 22:11:00,
2013-07-23 18:16:00,84.0,75.2,29.55,WNW,298,9.0,17.0,75,0.02,,---,0.11,VWS V12.08,2013-07-23 22:16:00,
2013-07-23 18:17:00,84.0,75.2,29.55,West,267,10.0,17.0,75,0.02,,---,0.11,VWS V12.08,2013-07-23 22:17:00,
2013-07-23 18:21:00,84.1,75.3,29.55,West,271,7.0,12.0,75,0.02,,---,0.11,VWS V12.08,2013-07-23 22:21:00,
2013-07-23 18:22:00,84.1,75.3,29.55,WNW,291,9.0,13.0,75,0.00,,---,0.11,VWS V12.08,2013-07-23 22:22:00,
2013-07-23 18:23:00,84.1,75.3,29.55,West,263,10.0,14.0,75,0.00,,---,0.11,VWS V12.08,2013-07-23 22:23:00,
2013-07-23 18:26:00,84.1,74.9,29.55,WNW,299,13.0,16.0,74,0.00,,---,0.11,VWS V12.08,2013-07-23 22:26:00,
2013-07-23 18:28:00,84.1,74.9,29.55,WNW,287,4.0,16.0,74,0.00,,---,0.11,VWS V12.08,2013-07-23 22:28:00,
2013-07-23 18:31:00,84.1,74.9,29.55,WNW,298,13.0,13.0,74,0.00,,---,0.11,VWS V12.08,2013-07-23 22:31:00,
2013-07-23 18:33:00,84.0,74.8,29.56,WNW,285,12.0,15.0,74,0.00,,---,0.11,VWS V12.08,2013-07-23 22:33:00,
2013-07-23 18:38:00,83.8,74.6,29.56,WNW,290,5.0,16.0,74,0.00,,---,0.11,VWS V12.08,2013-07-23 22:38:00,
2013-07-23 18:39:00,83.8,74.6,29.56,WNW,291,7.0,16.0,74,0.00,,---,0.11,VWS V12.08,2013-07-23 22:39:00,
2013-07-23 18:43:00,83.7,74.5,29.56,WNW,286,9.0,11.0,74,0.00,,---,0.11,VWS V12.08,2013-07-23 22:43:00,
2013-07-23 18:44:00,83.7,74.5,29.56,WNW,299,9.0,11.0,74,0.00,,---,0.11,VWS V12.08,2013-07-23 22:44:00,
2013-07-23 18:48:00,83.6,74.8,29.55,NW,304,6.0,13.0,75,0.00,,---,0.11,VWS V12.08,2013-07-23 22:48:00,
2013-07-23 18:49:00,83.6,74.8,29.55,WNW,291,9.0,13.0,75,0.00,,---,0.11,VWS V12.08,2013-07-23 22:49:00,
2013-07-23 18:50:00,83.6,74.8,29.55,WNW,283,8.0,13.0,75,0.00,,---,0.11,VWS V12.08,2013-07-23 22:50:00,
2013-07-23 18:54:00,83.5,74.8,29.55,NW,313,6.0,10.0,75,0.00,,---,0.11,VWS V12.08,2013-07-23 22:54:00,
2013-07-23 18:55:00,83.5,74.8,29.55,NW,313,4.0,10.0,75,0.00,,---,0.11,VWS V12.08,2013-07-23 22:55:00,
2013-07-23 18:59:00,83.4,74.7,29.56,NW,306,6.0,10.0,75,0.00,,---,0.11,VWS V12.08,2013-07-23 22:59:00,
2013-07-23 19:00:00,83.5,74.8,29.56,WNW,289,5.0,10.0,75,0.00,,---,0.11,VWS V12.08,2013-07-23 23:00:00,
2013-07-23 19:02:00,83.4,74.7,29.56,WNW,300,3.0,8.0,75,0.00,,---,0.11,VWS V12.08,2013-07-23 23:02:00,
2013-07-23 19:04:00,83.5,75.1,29.56,NW,305,7.0,9.0,76,0.00,,---,0.11,VWS V12.08,2013-07-23 23:04:00,
2013-07-23 19:05:00,83.4,75.1,29.56,NW,305,4.0,9.0,76,0.00,,---,0.11,VWS V12.08,2013-07-23 23:05:00,
2013-07-23 19:06:00,83.4,75.1,29.56,NW,305,3.0,9.0,76,0.00,,---,0.11,VWS V12.08,2013-07-23 23:06:00,
2013-07-23 19:08:00,83.5,75.1,29.56,NW,305,3.0,9.0,76,0.00,,---,0.11,VWS V12.08,2013-07-23 23:08:00,
2013-07-23 19:09:00,83.5,75.1,29.56,NW,325,7.0,9.0,76,0.00,,---,0.11,VWS V12.08,2013-07-23 23:09:00,
2013-07-23 19:11:00,83.6,75.2,29.56,NW,309,5.0,9.0,76,0.00,,---,0.11,VWS V12.08,2013-07-23 23:11:00,
2013-07-23 19:14:00,83.6,75.2,29.56,WNW,286,4.0,10.0,76,0.00,,---,0.11,VWS V12.08,2013-07-23 23:14:00,
2013-07-23 19:15:00,83.6,75.2,29.56,WNW,285,4.0,10.0,76,0.00,,---,0.11,VWS V12.08,2013-07-23 23:15:00,
2013-07-23 19:16:00,83.6,75.2,29.56,NNW,333,3.0,10.0,76,0.00,,---,0.11,VWS V12.08,2013-07-23 23:16:00,
2013-07-23 19:19:00,83.6,75.2,29.56,WNW,284,9.0,13.0,76,0.00,,---,0.11,VWS V12.08,2013-07-23 23:19:00,
2013-07-23 19:20:00,83.5,75.1,29.56,NW,309,6.0,13.0,76,0.00,,---,0.11,VWS V12.08,2013-07-23 23:20:00,
2013-07-23 19:21:00,83.5,75.1,29.56,WNW,303,9.0,11.0,76,0.00,,---,0.11,VWS V12.08,2013-07-23 23:21:00,
2013-07-23 19:22:00,83.5,75.1,29.56,WNW,302,6.0,11.0,76,0.00,,---,0.11,VWS V12.08,2013-07-23 23:22:00,
2013-07-23 19:24:00,83.5,75.1,29.56,NW,306,5.0,11.0,76,0.00,,---,0.11,VWS V12.08,2013-07-23 23:24:00,
2013-07-23 19:25:00,83.5,75.1,29.56,NW,304,6.0,11.0,76,0.00,,---,0.11,VWS V12.08,2013-07-23 23:25:00,
2013-07-23 19:27:00,83.5,75.1,29.56,NW,321,10.0,11.0,76,0.00,,---,0.11,VWS V12.08,2013-07-23 23:27:00,
2013-07-23 19:28:00,83.4,75.1,29.56,NW,304,6.0,11.0,76,0.00,,---,0.11,VWS V12.08,2013-07-23 23:28:00,
2013-07-23 19:30:00,83.3,74.9,29.56,WNW,302,6.0,11.0,76,0.00,,---,0.11,VWS V12.08,2013-07-23 23:30:00,
2013-07-23 19:31:00,83.3,74.6,29.56,WNW,302,5.0,11.0,75,0.00,,---,0.11,VWS V12.08,2013-07-23 23:31:00,
2013-07-23 19:32:00,83.2,74.5,29.57,NW,320,5.0,9.0,75,0.00,,---,0.11,VWS V12.08,2013-07-23 23:32:00,
2013-07-23 19:33:00,83.2,74.5,29.57,WNW,292,6.0,9.0,75,0.00,,---,0.11,VWS V12.08,2013-07-23 23:33:00,
2013-07-23 19:35:00,83.1,74.4,29.57,WNW,291,5.0,9.0,75,0.00,,---,0.11,VWS V12.08,2013-07-23 23:35:00,
2013-07-23 19:37:00,83.1,74.4,29.57,WNW,296,6.0,9.0,75,0.00,,---,0.11,VWS V12.08,2013-07-23 23:37:00,
2013-07-23 19:38:00,83.0,74.3,29.57,WNW,299,5.0,9.0,75,0.00,,---,0.11,VWS V12.08,2013-07-23 23:38:00,
2013-07-23 19:41:00,83.0,74.3,29.57,NW,307,4.0,9.0,75,0.00,,---,0.11,VWS V12.08,2013-07-23 23:41:00,
2013-07-23 19:43:00,82.8,74.1,29.57,NW,307,4.0,7.0,75,0.00,,---,0.11,VWS V12.08,2013-07-23 23:43:00,
2013-07-23 19:44:00,82.8,74.1,29.57,NW,307,5.0,7.0,75,0.00,,---,0.11,VWS V12.08,2013-07-23 23:44:00,
2013-07-23 19:46:00,82.7,74.0,29.57,NW,308,5.0,9.0,75,0.00,,---,0.11,VWS V12.08,2013-07-23 23:46:00,
2013-07-23 19:49:00,82.6,73.9,29.57,NW,307,3.0,9.0,75,0.00,,---,0.11,VWS V12.08,2013-07-23 23:49:00,
2013-07-23 19:51:00,82.5,73.8,29.57,WNW,293,6.0,9.0,75,0.00,,---,0.11,VWS V12.08,2013-07-23 23:51:00,
2013-07-23 19:54:00,82.4,74.1,29.57,WNW,293,5.0,7.0,76,0.00,,---,0.11,VWS V12.08,2013-07-23 23:54:00,
2013-07-23 19:55:00,82.4,74.1,29.57,WNW,293,4.0,7.0,76,0.00,,---,0.11,VWS V12.08,2013-07-23 23:55:00,
2013-07-23 19:56:00,82.3,74.0,29.57,WNW,293,4.0,7.0,76,0.00,,---,0.11,VWS V12.08,2013-07-23 23:56:00,
2013-07-23 19:57:00,82.3,74.0,29.57,WNW,293,4.0,7.0,76,0.00,,---,0.11,VWS V12.08,2013-07-23 23:57:00,
2013-07-23 20:01:00,82.2,73.9,29.57,WNW,293,2.0,7.0,76,0.00,,---,0.11,VWS V12.08,2013-07-24 00:01:00,
2013-07-23 20:02:00,82.2,73.9,29.57,WNW,293,4.0,4.0,76,0.00,,---,0.11,VWS V12.08,2013-07-24 00:02:00,
2013-07-23 20:06:00,82.0,73.7,29.57,WNW,293,4.0,5.0,76,0.00,,---,0.11,VWS V12.08,2013-07-24 00:06:00,
2013-07-23 20:07:00,82.0,73.7,29.57,WNW,293,3.0,5.0,76,0.00,,---,0.11,VWS V12.08,2013-07-24 00:07:00,
2013-07-23 20:08:00,82.0,73.7,29.57,WNW,293,3.0,5.0,76,0.00,,---,0.11,VWS V12.08,2013-07-24 00:08:00,
2013-07-23 20:11:00,81.8,73.5,29.57,WNW,293,6.0,6.0,76,0.00,,---,0.11,VWS V12.08,2013-07-24 00:11:00,
2013-07-23 20:12:00,81.7,73.4,29.58,WNW,293,5.0,7.0,76,0.00,,---,0.11,VWS V12.08,2013-07-24 00:12:00,
2013-07-23 20:13:00,81.7,73.4,29.58,WNW,293,5.0,7.0,76,0.00,,---,0.11,VWS V12.08,2013-07-24 00:13:00,
2013-07-23 20:16:00,81.7,73.8,29.57,West,262,4.0,9.0,77,0.00,,---,0.11,VWS V12.08,2013-07-24 00:16:00,
2013-07-23 20:18:00,81.6,74.1,29.57,West,261,5.0,9.0,78,0.00,,---,0.11,VWS V12.08,2013-07-24 00:18:00,
2013-07-23 20:19:00,81.6,74.1,29.57,West,266,7.0,9.0,78,0.00,,---,0.11,VWS V12.08,2013-07-24 00:19:00,
2013-07-23 20:21:00,81.5,74.0,29.58,West,276,4.0,6.0,78,0.00,,---,0.11,VWS V12.08,2013-07-24 00:21:00,
2013-07-23 20:24:00,81.4,73.9,29.58,West,277,4.0,7.0,78,0.00,,---,0.11,VWS V12.08,2013-07-24 00:24:00,
2013-07-23 20:25:00,81.4,73.9,29.58,West,277,2.0,7.0,78,0.00,,---,0.11,VWS V12.08,2013-07-24 00:25:00,
2013-07-23 20:27:00,81.3,74.2,29.58,West,277,7.0,7.0,79,0.00,,---,0.11,VWS V12.08,2013-07-24 00:27:00,
2013-07-23 20:29:00,81.3,74.2,29.58,West,265,6.0,8.0,79,0.00,,---,0.11,VWS V12.08,2013-07-24 00:29:00,
2013-07-23 20:30:00,81.2,74.1,29.58,West,260,3.0,8.0,79,0.00,,---,0.11,VWS V12.08,2013-07-24 00:30:00,
2013-07-23 20:32:00,81.1,74.0,29.58,West,263,3.0,5.0,79,0.00,,---,0.11,VWS V12.08,2013-07-24 00:32:00,
2013-07-23 20:34:00,81.1,74.0,29.58,West,263,2.0,5.0,79,0.00,,---,0.11,VWS V12.08,2013-07-24 00:34:00,
2013-07-23 20:37:00,80.9,74.2,29.58,West,271,4.0,6.0,80,0.00,,---,0.11,VWS V12.08,2013-07-24 00:37:00,
2013-07-23 20:39:00,80.8,73.7,29.58,West,271,4.0,6.0,79,0.00,,---,0.11,VWS V12.08,2013-07-24 00:39:00,
2013-07-23 20:40:00,80.8,73.7,29.58,West,272,3.0,6.0,79,0.00,,---,0.11,VWS V12.08,2013-07-24 00:40:00,
2013-07-23 20:43:00,80.7,73.6,29.58,West,277,3.0,6.0,79,0.00,,---,0.11,VWS V12.08,2013-07-24 00:43:00,
2013-07-23 20:44:00,80.6,73.9,29.58,WNW,291,4.0,6.0,80,0.00,,---,0.11,VWS V12.08,2013-07-24 00:44:00,
2013-07-23 20:46:00,80.5,73.8,29.58,WNW,291,7.0,7.0,80,0.00,,---,0.11,VWS V12.08,2013-07-24 00:46:00,
2013-07-23 20:48:00,80.4,73.7,29.58,WNW,291,4.0,7.0,80,0.00,,---,0.11,VWS V12.08,2013-07-24 00:48:00,
2013-07-23 20:49:00,80.3,73.6,29.58,WNW,291,5.0,7.0,80,0.00,,---,0.11,VWS V12.08,2013-07-24 00:49:00,
2013-07-23 20:51:00,80.3,73.6,29.58,WNW,291,4.0,7.0,80,0.00,,---,0.11,VWS V12.08,2013-07-24 00:51:00,
2013-07-23 20:54:00,80.1,73.4,29.58,WNW,291,4.0,5.0,80,0.00,,---,0.11,VWS V12.08,2013-07-24 00:54:00,
2013-07-23 20:56:00,80.0,73.3,29.58,WNW,291,2.0,5.0,80,0.00,,---,0.11,VWS V12.08,2013-07-24 00:56:00,
2013-07-23 20:59:00,79.8,73.1,29.58,WNW,291,3.0,6.0,80,0.00,,---,0.11,VWS V12.08,2013-07-24 00:59:00,
2013-07-23 21:00:00,79.7,73.0,29.58,WNW,291,2.0,6.0,80,0.00,,---,0.11,VWS V12.08,2013-07-24 01:00:00,
2013-07-23 21:01:00,79.7,73.0,29.58,WNW,291,1.0,6.0,80,0.00,,---,0.11,VWS V12.08,2013-07-24 01:01:00,
2013-07-23 21:04:00,79.6,72.9,29.58,WNW,291,1.0,5.0,80,0.00,,---,0.11,VWS V12.08,2013-07-24 01:04:00,
2013-07-23 21:06:00,79.5,72.8,29.59,WNW,291,4.0,5.0,80,0.00,,---,0.11,VWS V12.08,2013-07-24 01:06:00,
2013-07-23 21:07:00,79.5,72.8,29.59,WNW,291,4.0,5.0,80,0.00,,---,0.11,VWS V12.08,2013-07-24 01:07:00,
2013-07-23 21:09:00,79.4,72.7,29.59,WNW,291,3.0,5.0,80,0.00,,---,0.11,VWS V12.08,2013-07-24 01:09:00,
2013-07-23 21:11:00,79.4,72.7,29.59,WNW,291,3.0,4.0,80,0.00,,---,0.11,VWS V12.08,2013-07-24 01:11:00,
2013-07-23 21:12:00,79.3,72.6,29.59,WNW,291,1.0,4.0,80,0.00,,---,0.11,VWS V12.08,2013-07-24 01:12:00,
2013-07-23 21:14:00,79.2,72.5,29.59,WNW,291,4.0,4.0,80,0.00,,---,0.11,VWS V12.08,2013-07-24 01:14:00,
2013-07-23 21:16:00,79.1,72.4,29.60,WNW,291,2.0,4.0,80,0.00,,---,0.11,VWS V12.08,2013-07-24 01:16:00,
2013-07-23 21:18:00,79.1,72.4,29.59,WNW,291,2.0,4.0,80,0.00,,---,0.11,VWS V12.08,2013-07-24 01:18:00,
2013-07-23 21:20:00,78.8,72.1,29.60,WNW,291,0.0,4.0,80,0.00,,---,0.11,VWS V12.08,2013-07-24 01:20:00,
2013-07-23 21:22:00,78.5,71.8,29.59,WNW,291,0.0,1.0,80,0.00,,---,0.11,VWS V12.08,2013-07-24 01:22:00,
2013-07-23 21:23:00,78.4,71.7,29.59,WNW,291,3.0,3.0,80,0.00,,---,0.11,VWS V12.08,2013-07-24 01:23:00,
2013-07-23 21:25:00,78.1,71.4,29.60,WNW,291,1.0,3.0,80,0.00,,---,0.11,VWS V12.08,2013-07-24 01:25:00,
2013-07-23 21:27:00,77.8,71.5,29.60,WNW,291,2.0,4.0,81,0.00,,---,0.11,VWS V12.08,2013-07-24 01:27:00,
2013-07-23 21:28:00,77.6,71.3,29.60,WNW,291,2.0,4.0,81,0.00,,---,0.11,VWS V12.08,2013-07-24 01:28:00,
2013-07-23 21:29:00,77.5,71.2,29.60,WNW,291,3.0,4.0,81,0.00,,---,0.11,VWS V12.08,2013-07-24 01:29:00,
2013-07-23 21:31:00,77.1,70.8,29.60,WNW,291,2.0,4.0,81,0.00,,---,0.11,VWS V12.08,2013-07-24 01:31:00,
2013-07-23 21:33:00,76.6,70.7,29.60,WNW,291,0.0,3.0,82,0.00,,---,0.11,VWS V12.08,2013-07-24 01:33:00,
2013-07-23 21:34:00,76.4,70.5,29.60,WNW,291,2.0,3.0,82,0.00,,---,0.11,VWS V12.08,2013-07-24 01:34:00,
2013-07-23 21:36:00,75.9,70.4,29.60,WNW,291,1.0,3.0,83,0.00,,---,0.11,VWS V12.08,2013-07-24 01:36:00,
2013-07-23 21:39:00,75.5,70.3,29.60,WNW,291,3.0,4.0,84,0.00,,---,0.11,VWS V12.08,2013-07-24 01:39:00,
2013-07-23 21:40:00,75.3,70.1,29.60,WNW,291,1.0,4.0,84,0.00,,---,0.11,VWS V12.08,2013-07-24 01:40:00,
2013-07-23 21:41:00,75.2,70.0,29.60,WNW,291,0.0,1.0,84,0.00,,---,0.11,VWS V12.08,2013-07-24 01:41:00,
2013-07-23 21:44:00,74.8,70.0,29.60,WNW,291,1.0,4.0,85,0.00,,---,0.11,VWS V12.08,2013-07-24 01:44:00,
2013-07-23 21:45:00,74.7,69.9,29.60,WNW,291,2.0,4.0,85,0.00,,---,0.11,VWS V12.08,2013-07-24 01:45:00,
2013-07-23 21:47:00,74.5,69.7,29.61,WNW,291,1.0,4.0,85,0.00,,---,0.11,VWS V12.08,2013-07-24 01:47:00,
2013-07-23 21:50:00,74.3,69.8,29.61,WNW,291,0.0,4.0,86,0.00,,---,0.11,VWS V12.08,2013-07-24 01:50:00,
2013-07-23 21:53:00,74.0,69.6,29.61,WNW,291,1.0,3.0,86,0.00,,---,0.11,VWS V12.08,2013-07-24 01:53:00,
2013-07-23 21:55:00,73.9,69.8,29.61,WNW,291,3.0,3.0,87,0.00,,---,0.11,VWS V12.08,2013-07-24 01:55:00,
2013-07-23 21:58:00,73.7,69.6,29.61,WNW,291,0.0,3.0,87,0.00,,---,0.11,VWS V12.08,2013-07-24 01:58:00,
2013-07-23 22:00:00,73.5,69.4,29.61,WNW,291,1.0,3.0,87,0.00,,---,0.11,VWS V12.08,2013-07-24 02:00:00,
2013-07-23 22:01:00,73.4,69.3,29.61,WNW,291,2.0,3.0,87,0.00,,---,0.11,VWS V12.08,2013-07-24 02:01:00,
2013-07-23 22:04:00,73.2,69.4,29.61,WNW,291,1.0,3.0,88,0.00,,---,0.11,VWS V12.08,2013-07-24 02:04:00,
2013-07-23 22:05:00,73.1,69.3,29.61,WNW,291,2.0,3.0,88,0.00,,---,0.11,VWS V12.08,2013-07-24 02:05:00,
2013-07-23 22:07:00,73.0,69.2,29.61,WNW,291,1.0,3.0,88,0.00,,---,0.11,VWS V12.08,2013-07-24 02:07:00,
2013-07-23 22:10:00,72.9,69.1,29.61,WNW,291,1.0,3.0,88,0.00,,---,0.11,VWS V12.08,2013-07-24 02:10:00,
2013-07-23 22:12:00,72.9,69.5,29.61,WNW,291,2.0,3.0,89,0.00,,---,0.11,VWS V12.08,2013-07-24 02:12:00,
2013-07-23 22:15:00,73.0,69.6,29.61,WNW,291,3.0,4.0,89,0.00,,---,0.11,VWS V12.08,2013-07-24 02:15:00,
2013-07-23 22:16:00,73.1,69.7,29.61,WNW,291,2.0,4.0,89,0.00,,---,0.11,VWS V12.08,2013-07-24 02:16:00,
2013-07-23 22:18:00,73.1,69.7,29.61,WNW,291,2.0,4.0,89,0.00,,---,0.11,VWS V12.08,2013-07-24 02:18:00,
2013-07-23 22:21:00,73.1,69.7,29.61,WNW,291,1.0,4.0,89,0.00,,---,0.11,VWS V12.08,2013-07-24 02:21:00,
2013-07-23 22:22:00,73.1,69.7,29.61,WNW,291,2.0,3.0,89,0.00,,---,0.11,VWS V12.08,2013-07-24 02:22:00,
2013-07-23 22:23:00,73.1,69.7,29.61,WNW,291,3.0,5.0,89,0.00,,---,0.11,VWS V12.08,2013-07-24 02:23:00,
2013-07-23 22:26:00,73.2,69.8,29.61,WNW,291,4.0,5.0,89,0.00,,---,0.11,VWS V12.08,2013-07-24 02:26:00,
2013-07-23 22:27:00,73.3,70.2,29.61,WNW,291,3.0,5.0,90,0.00,,---,0.11,VWS V12.08,2013-07-24 02:27:00,
2013-07-23 22:28:00,73.4,70.3,29.61,WNW,291,3.0,5.0,90,0.00,,---,0.11,VWS V12.08,2013-07-24 02:28:00,
2013-07-23 22:29:00,73.4,70.3,29.61,WNW,291,1.0,5.0,90,0.00,,---,0.11,VWS V12.08,2013-07-24 02:29:00,
2013-07-23 22:31:00,73.5,70.4,29.61,WNW,291,2.0,2.0,90,0.00,,---,0.11,VWS V12.08,2013-07-24 02:31:00,
2013-07-23 22:33:00,73.5,70.4,29.61,WNW,291,1.0,3.0,90,0.00,,---,0.11,VWS V12.08,2013-07-24 02:33:00,
2013-07-23 22:34:00,73.5,70.4,29.61,WNW,291,1.0,3.0,90,0.00,,---,0.11,VWS V12.08,2013-07-24 02:34:00,
2013-07-23 22:36:00,73.4,70.3,29.61,WNW,291,0.0,3.0,90,0.00,,---,0.11,VWS V12.08,2013-07-24 02:36:00,
2013-07-23 22:39:00,73.4,70.3,29.61,WNW,291,1.0,3.0,90,0.00,,---,0.11,VWS V12.08,2013-07-24 02:39:00,
2013-07-23 22:42:00,73.2,70.1,29.61,WNW,291,0.0,1.0,90,0.00,,---,0.11,VWS V12.08,2013-07-24 02:42:00,
2013-07-23 22:44:00,73.0,69.9,29.61,WNW,291,1.0,3.0,90,0.00,,---,0.11,VWS V12.08,2013-07-24 02:44:00,
2013-07-23 22:46:00,72.9,69.8,29.61,WNW,291,2.0,3.0,90,0.00,,---,0.11,VWS V12.08,2013-07-24 02:46:00,
2013-07-23 22:47:00,72.9,69.8,29.61,WNW,291,1.0,3.0,90,0.00,,---,0.11,VWS V12.08,2013-07-24 02:47:00,
2013-07-23 22:48:00,72.8,69.7,29.61,WNW,291,2.0,3.0,90,0.00,,---,0.11,VWS V12.08,2013-07-24 02:48:00,
2013-07-23 22:51:00,72.8,69.7,29.61,WNW,291,4.0,5.0,90,0.00,,---,0.11,VWS V12.08,2013-07-24 02:51:00,
2013-07-23 22:53:00,72.9,70.1,29.61,WNW,291,0.0,4.0,91,0.00,,---,0.11,VWS V12.08,2013-07-24 02:53:00,
2013-07-23 22:54:00,72.9,69.8,29.61,WNW,291,3.0,5.0,90,0.00,,---,0.11,VWS V12.08,2013-07-24 02:54:00,
2013-07-23 22:55:00,72.9,69.8,29.61,WNW,291,2.0,5.0,90,0.00,,---,0.11,VWS V12.08,2013-07-24 02:55:00,
2013-07-23 22:56:00,72.8,69.7,29.61,WNW,291,4.0,5.0,90,0.00,,---,0.11,VWS V12.08,2013-07-24 02:56:00,
2013-07-23 22:59:00,72.6,69.5,29.61,WNW,291,4.0,5.0,90,0.00,,---,0.11,VWS V12.08,2013-07-24 02:59:00,
2013-07-23 23:00:00,72.6,69.5,29.61,WNW,291,2.0,5.0,90,0.00,,---,0.11,VWS V12.08,2013-07-24 03:00:00,
2013-07-23 23:01:00,72.6,69.5,29.61,WNW,291,2.0,3.0,90,0.00,,---,0.11,VWS V12.08,2013-07-24 03:01:00,
2013-07-23 23:05:00,72.6,69.8,29.61,WNW,291,2.0,4.0,91,0.00,,---,0.11,VWS V12.08,2013-07-24 03:05:00,
2013-07-23 23:06:00,72.7,69.9,29.61,WNW,291,2.0,4.0,91,0.00,,---,0.11,VWS V12.08,2013-07-24 03:06:00,
2013-07-23 23:07:00,72.8,70.0,29.61,WNW,291,4.0,4.0,91,0.00,,---,0.11,VWS V12.08,2013-07-24 03:07:00,
2013-07-23 23:10:00,73.1,70.3,29.61,WNW,291,4.0,5.0,91,0.00,,---,0.11,VWS V12.08,2013-07-24 03:10:00,
2013-07-23 23:11:00,73.2,70.4,29.61,WNW,291,1.0,3.0,91,0.00,,---,0.11,VWS V12.08,2013-07-24 03:11:00,
2013-07-23 23:13:00,73.2,70.4,29.61,WNW,291,2.0,5.0,91,0.00,,---,0.11,VWS V12.08,2013-07-24 03:13:00,
2013-07-23 23:15:00,73.3,70.5,29.61,WNW,291,3.0,6.0,91,0.00,,---,0.11,VWS V12.08,2013-07-24 03:15:00,
2013-07-23 23:16:00,73.4,70.6,29.61,WNW,291,3.0,6.0,91,0.00,,---,0.11,VWS V12.08,2013-07-24 03:16:00,
2013-07-23 23:17:00,73.5,71.0,29.61,WNW,291,3.0,6.0,92,0.00,,---,0.11,VWS V12.08,2013-07-24 03:17:00,
2013-07-23 23:19:00,73.6,71.1,29.61,WNW,291,3.0,6.0,92,0.00,,---,0.11,VWS V12.08,2013-07-24 03:19:00,
2013-07-23 23:22:00,73.7,70.9,29.61,WNW,291,3.0,3.0,91,0.00,,---,0.11,VWS V12.08,2013-07-24 03:22:00,
2013-07-23 23:24:00,73.6,70.8,29.61,WNW,291,1.0,4.0,91,0.00,,---,0.11,VWS V12.08,2013-07-24 03:24:00,
2013-07-23 23:27:00,73.4,70.6,29.61,WNW,291,3.0,5.0,91,0.00,,---,0.11,VWS V12.08,2013-07-24 03:27:00,
2013-07-23 23:28:00,73.4,70.6,29.61,WNW,291,4.0,5.0,91,0.00,,---,0.11,VWS V12.08,2013-07-24 03:28:00,
2013-07-23 23:31:00,73.5,71.0,29.61,West,278,3.0,5.0,92,0.00,,---,0.11,VWS V12.08,2013-07-24 03:31:00,
2013-07-23 23:33:00,73.7,71.2,29.61,West,278,3.0,5.0,92,0.00,,---,0.11,VWS V12.08,2013-07-24 03:33:00,
2013-07-23 23:37:00,73.8,71.0,29.61,West,278,3.0,5.0,91,0.00,,---,0.11,VWS V12.08,2013-07-24 03:37:00,
2013-07-23 23:38:00,73.8,71.0,29.61,West,278,4.0,5.0,91,0.00,,---,0.11,VWS V12.08,2013-07-24 03:38:00,
2013-07-23 23:40:00,73.7,70.9,29.61,West,278,3.0,5.0,91,0.00,,---,0.11,VWS V12.08,2013-07-24 03:40:00,
2013-07-23 23:41:00,73.7,71.2,29.61,West,278,4.0,5.0,92,0.00,,---,0.11,VWS V12.08,2013-07-24 03:41:00,
2013-07-23 23:42:00,73.7,71.2,29.61,West,278,3.0,5.0,92,0.00,,---,0.11,VWS V12.08,2013-07-24 03:42:00,
2013-07-23 23:43:00,73.7,71.2,29.61,West,278,2.0,5.0,92,0.00,,---,0.11,VWS V12.08,2013-07-24 03:43:00,
2013-07-23 23:45:00,73.5,70.7,29.61,West,278,2.0,5.0,91,0.00,,---,0.11,VWS V12.08,2013-07-24 03:45:00,
2013-07-23 23:46:00,73.4,70.6,29.61,West,278,4.0,5.0,91,0.00,,---,0.11,VWS V12.08,2013-07-24 03:46:00,
2013-07-23 23:47:00,73.2,70.4,29.61,West,278,4.0,5.0,91,0.00,,---,0.11,VWS V12.08,2013-07-24 03:47:00,
2013-07-23 23:49:00,73.0,70.2,29.61,West,278,4.0,5.0,91,0.00,,---,0.11,VWS V12.08,2013-07-24 03:49:00,
2013-07-23 23:50:00,73.0,70.2,29.61,West,278,1.0,5.0,91,0.00,,---,0.11,VWS V12.08,2013-07-24 03:50:00,
2013-07-23 23:51:00,73.0,70.2,29.61,West,278,3.0,3.0,91,0.00,,---,0.11,VWS V12.08,2013-07-24 03:51:00,
2013-07-23 23:53:00,73.1,70.6,29.61,West,278,4.0,4.0,92,0.00,,---,0.11,VWS V12.08,2013-07-24 03:53:00,
2013-07-23 23:55:00,73.3,70.8,29.61,West,272,6.0,6.0,92,0.00,,---,0.11,VWS V12.08,2013-07-24 03:55:00,
2013-07-23 23:56:00,73.5,71.0,29.61,West,271,2.0,6.0,92,0.00,,---,0.11,VWS V12.08,2013-07-24 03:56:00,
2013-07-23 23:59:00,73.8,71.3,29.61,West,271,3.0,6.0,92,0.00,,---,0.11,VWS V12.08,2013-07-24 03:59:00,